<?xml version="1.0" encoding="UTF-8" standalone="no" ?>
<gpx xmlns="http://www.topografix.com/GPX/1/1" xmlns:xsi="http://www.w3.org/2001/XMLSchema-instance" xsi:schemaLocation="http://www.topografix.com/GPX/1/1 http://www.topografix.com/GPX/1/1/gpx.xsd" version="1.1" creator="VisuGPX - https://www.visugpx.com">
  <metadata>
    <name>Chatel-Guyon variante J-M 31kms</name>
    <desc><![CDATA[Superbe Sortie autour de Châtel Guyon]]></desc>
  </metadata>
  <trk>
    <name><![CDATA[Chatel-Guyon variante J-M 31kms]]></name>
    <trkseg>
      <trkpt lat="45.91611" lon="3.05513">
        <ele>434</ele>
        <time>2013-12-28T06:54:05Z</time>
      </trkpt>
      <trkpt lat="45.91603" lon="3.05424">
        <ele>435</ele>
        <time>2013-12-28T06:54:05Z</time>
      </trkpt>
      <trkpt lat="45.91605" lon="3.05325">
        <ele>440</ele>
        <time>2013-12-28T06:54:05Z</time>
      </trkpt>
      <trkpt lat="45.91613" lon="3.05228">
        <ele>442</ele>
        <time>2013-12-28T06:54:05Z</time>
      </trkpt>
      <trkpt lat="45.91637" lon="3.0518">
        <ele>444</ele>
        <time>2013-12-28T06:54:05Z</time>
      </trkpt>
      <trkpt lat="45.91646" lon="3.05146">
        <ele>443</ele>
        <time>2013-12-28T06:54:05Z</time>
      </trkpt>
      <trkpt lat="45.91642" lon="3.05103">
        <ele>441</ele>
        <time>2013-12-28T06:54:05Z</time>
      </trkpt>
      <trkpt lat="45.91642" lon="3.05048">
        <ele>442</ele>
        <time>2013-12-28T06:54:05Z</time>
      </trkpt>
      <trkpt lat="45.91646" lon="3.04984">
        <ele>444</ele>
        <time>2013-12-28T06:54:05Z</time>
      </trkpt>
      <trkpt lat="45.91663" lon="3.04895">
        <ele>451</ele>
        <time>2013-12-28T06:54:05Z</time>
      </trkpt>
      <trkpt lat="45.91687" lon="3.04812">
        <ele>459</ele>
        <time>2013-12-28T06:54:05Z</time>
      </trkpt>
      <trkpt lat="45.91703" lon="3.04744">
        <ele>464</ele>
        <time>2013-12-28T06:54:05Z</time>
      </trkpt>
      <trkpt lat="45.91703" lon="3.04704">
        <ele>464</ele>
        <time>2013-12-28T06:54:05Z</time>
      </trkpt>
      <trkpt lat="45.91688" lon="3.04633">
        <ele>465</ele>
        <time>2013-12-28T06:54:05Z</time>
      </trkpt>
      <trkpt lat="45.91686" lon="3.04583">
        <ele>469</ele>
        <time>2013-12-28T06:54:05Z</time>
      </trkpt>
      <trkpt lat="45.91686" lon="3.04518">
        <ele>474</ele>
        <time>2013-12-28T06:54:05Z</time>
      </trkpt>
      <trkpt lat="45.91696" lon="3.04469">
        <ele>481</ele>
        <time>2013-12-28T06:54:05Z</time>
      </trkpt>
      <trkpt lat="45.91683" lon="3.04425">
        <ele>479</ele>
        <time>2013-12-28T06:54:05Z</time>
      </trkpt>
      <trkpt lat="45.91662" lon="3.0431">
        <ele>484</ele>
        <time>2013-12-28T06:54:05Z</time>
      </trkpt>
      <trkpt lat="45.91654" lon="3.04217">
        <ele>487</ele>
        <time>2013-12-28T06:54:05Z</time>
      </trkpt>
      <trkpt lat="45.91649" lon="3.0413">
        <ele>490</ele>
        <time>2013-12-28T06:54:05Z</time>
      </trkpt>
      <trkpt lat="45.91636" lon="3.04078">
        <ele>488</ele>
        <time>2013-12-28T06:54:05Z</time>
      </trkpt>
      <trkpt lat="45.91624" lon="3.04016">
        <ele>487</ele>
        <time>2013-12-28T06:54:05Z</time>
      </trkpt>
      <trkpt lat="45.91613" lon="3.03979">
        <ele>484</ele>
        <time>2013-12-28T06:54:05Z</time>
      </trkpt>
      <trkpt lat="45.91608" lon="3.03945">
        <ele>485</ele>
        <time>2013-12-28T06:54:05Z</time>
      </trkpt>
      <trkpt lat="45.91603" lon="3.03905">
        <ele>486</ele>
        <time>2013-12-28T06:54:05Z</time>
      </trkpt>
      <trkpt lat="45.91611" lon="3.03852">
        <ele>495</ele>
        <time>2013-12-28T06:54:05Z</time>
      </trkpt>
      <trkpt lat="45.91611" lon="3.0382">
        <ele>495</ele>
        <time>2013-12-28T06:54:05Z</time>
      </trkpt>
      <trkpt lat="45.91609" lon="3.03791">
        <ele>493</ele>
        <time>2013-12-28T06:54:05Z</time>
      </trkpt>
      <trkpt lat="45.916" lon="3.03787">
        <ele>490</ele>
        <time>2013-12-28T06:54:05Z</time>
      </trkpt>
      <trkpt lat="45.91572" lon="3.0381">
        <ele>485</ele>
        <time>2013-12-28T06:54:05Z</time>
      </trkpt>
      <trkpt lat="45.91571" lon="3.03834">
        <ele>484</ele>
        <time>2013-12-28T06:54:05Z</time>
      </trkpt>
      <trkpt lat="45.91574" lon="3.03919">
        <ele>478</ele>
        <time>2013-12-28T06:54:05Z</time>
      </trkpt>
      <trkpt lat="45.9157" lon="3.03974">
        <ele>475</ele>
        <time>2013-12-28T06:54:05Z</time>
      </trkpt>
      <trkpt lat="45.91566" lon="3.04022">
        <ele>474</ele>
        <time>2013-12-28T06:54:05Z</time>
      </trkpt>
      <trkpt lat="45.91557" lon="3.04054">
        <ele>474</ele>
        <time>2013-12-28T06:54:05Z</time>
      </trkpt>
      <trkpt lat="45.91563" lon="3.04133">
        <ele>473</ele>
        <time>2013-12-28T06:54:05Z</time>
      </trkpt>
      <trkpt lat="45.91568" lon="3.04275">
        <ele>472</ele>
        <time>2013-12-28T06:54:05Z</time>
      </trkpt>
      <trkpt lat="45.91565" lon="3.04375">
        <ele>470</ele>
        <time>2013-12-28T06:54:05Z</time>
      </trkpt>
      <trkpt lat="45.91558" lon="3.04431">
        <ele>470</ele>
        <time>2013-12-28T06:54:05Z</time>
      </trkpt>
      <trkpt lat="45.91572" lon="3.04544">
        <ele>468</ele>
        <time>2013-12-28T06:54:05Z</time>
      </trkpt>
      <trkpt lat="45.91572" lon="3.04581">
        <ele>466</ele>
        <time>2013-12-28T06:54:05Z</time>
      </trkpt>
      <trkpt lat="45.91564" lon="3.04607">
        <ele>467</ele>
        <time>2013-12-28T06:54:05Z</time>
      </trkpt>
      <trkpt lat="45.91537" lon="3.0467">
        <ele>466</ele>
        <time>2013-12-28T06:54:05Z</time>
      </trkpt>
      <trkpt lat="45.91532" lon="3.04708">
        <ele>464</ele>
        <time>2013-12-28T06:54:05Z</time>
      </trkpt>
      <trkpt lat="45.9155" lon="3.04818">
        <ele>463</ele>
        <time>2013-12-28T06:54:05Z</time>
      </trkpt>
      <trkpt lat="45.9154" lon="3.04871">
        <ele>466</ele>
        <time>2013-12-28T06:54:05Z</time>
      </trkpt>
      <trkpt lat="45.91531" lon="3.04921">
        <ele>467</ele>
        <time>2013-12-28T06:54:05Z</time>
      </trkpt>
      <trkpt lat="45.91505" lon="3.04949">
        <ele>472</ele>
        <time>2013-12-28T06:54:05Z</time>
      </trkpt>
      <trkpt lat="45.9146" lon="3.04989">
        <ele>479</ele>
        <time>2013-12-28T06:54:05Z</time>
      </trkpt>
      <trkpt lat="45.91442" lon="3.05013">
        <ele>482</ele>
        <time>2013-12-28T06:54:05Z</time>
      </trkpt>
      <trkpt lat="45.91441" lon="3.0505">
        <ele>483</ele>
        <time>2013-12-28T06:54:05Z</time>
      </trkpt>
      <trkpt lat="45.9144" lon="3.05082">
        <ele>484</ele>
        <time>2013-12-28T06:54:05Z</time>
      </trkpt>
      <trkpt lat="45.91435" lon="3.05103">
        <ele>485</ele>
        <time>2013-12-28T06:54:05Z</time>
      </trkpt>
      <trkpt lat="45.91422" lon="3.05114">
        <ele>486</ele>
        <time>2013-12-28T06:54:05Z</time>
      </trkpt>
      <trkpt lat="45.91404" lon="3.05113">
        <ele>486</ele>
        <time>2013-12-28T06:54:05Z</time>
      </trkpt>
      <trkpt lat="45.91379" lon="3.05062">
        <ele>489</ele>
        <time>2013-12-28T06:54:05Z</time>
      </trkpt>
      <trkpt lat="45.9134" lon="3.04967">
        <ele>493</ele>
        <time>2013-12-28T06:54:05Z</time>
      </trkpt>
      <trkpt lat="45.91331" lon="3.04928">
        <ele>495</ele>
        <time>2013-12-28T06:54:05Z</time>
      </trkpt>
      <trkpt lat="45.91366" lon="3.04891">
        <ele>496</ele>
        <time>2013-12-28T06:54:05Z</time>
      </trkpt>
      <trkpt lat="45.9132" lon="3.04768">
        <ele>507</ele>
        <time>2013-12-28T06:54:05Z</time>
      </trkpt>
      <trkpt lat="45.91287" lon="3.04665">
        <ele>515</ele>
        <time>2013-12-28T06:54:05Z</time>
      </trkpt>
      <trkpt lat="45.91265" lon="3.04561">
        <ele>517</ele>
        <time>2013-12-28T06:54:05Z</time>
      </trkpt>
      <trkpt lat="45.91263" lon="3.04502">
        <ele>520</ele>
        <time>2013-12-28T06:54:05Z</time>
      </trkpt>
      <trkpt lat="45.91268" lon="3.04455">
        <ele>524</ele>
        <time>2013-12-28T06:54:05Z</time>
      </trkpt>
      <trkpt lat="45.91312" lon="3.04399">
        <ele>524</ele>
        <time>2013-12-28T06:54:05Z</time>
      </trkpt>
      <trkpt lat="45.91321" lon="3.04327">
        <ele>533</ele>
        <time>2013-12-28T06:54:05Z</time>
      </trkpt>
      <trkpt lat="45.91327" lon="3.04295">
        <ele>537</ele>
        <time>2013-12-28T06:54:05Z</time>
      </trkpt>
      <trkpt lat="45.9133" lon="3.04254">
        <ele>544</ele>
        <time>2013-12-28T06:54:05Z</time>
      </trkpt>
      <trkpt lat="45.91367" lon="3.04145">
        <ele>551</ele>
        <time>2013-12-28T06:54:05Z</time>
      </trkpt>
      <trkpt lat="45.91388" lon="3.04118">
        <ele>548</ele>
        <time>2013-12-28T06:54:05Z</time>
      </trkpt>
      <trkpt lat="45.91394" lon="3.04081">
        <ele>549</ele>
        <time>2013-12-28T06:54:05Z</time>
      </trkpt>
      <trkpt lat="45.91387" lon="3.03978">
        <ele>555</ele>
        <time>2013-12-28T06:54:05Z</time>
      </trkpt>
      <trkpt lat="45.91385" lon="3.03843">
        <ele>557</ele>
        <time>2013-12-28T06:54:05Z</time>
      </trkpt>
      <trkpt lat="45.91379" lon="3.03775">
        <ele>562</ele>
        <time>2013-12-28T06:54:05Z</time>
      </trkpt>
      <trkpt lat="45.91353" lon="3.03707">
        <ele>571</ele>
        <time>2013-12-28T06:54:05Z</time>
      </trkpt>
      <trkpt lat="45.91336" lon="3.0365">
        <ele>572</ele>
        <time>2013-12-28T06:54:05Z</time>
      </trkpt>
      <trkpt lat="45.91308" lon="3.03595">
        <ele>572</ele>
        <time>2013-12-28T06:54:05Z</time>
      </trkpt>
      <trkpt lat="45.91272" lon="3.0354">
        <ele>576</ele>
        <time>2013-12-28T06:54:05Z</time>
      </trkpt>
      <trkpt lat="45.91248" lon="3.03507">
        <ele>580</ele>
        <time>2013-12-28T06:54:05Z</time>
      </trkpt>
      <trkpt lat="45.91245" lon="3.03467">
        <ele>581</ele>
        <time>2013-12-28T06:54:05Z</time>
      </trkpt>
      <trkpt lat="45.91274" lon="3.034">
        <ele>590</ele>
        <time>2013-12-28T06:54:05Z</time>
      </trkpt>
      <trkpt lat="45.91323" lon="3.03381">
        <ele>585</ele>
        <time>2013-12-28T06:54:05Z</time>
      </trkpt>
      <trkpt lat="45.91345" lon="3.03349">
        <ele>591</ele>
        <time>2013-12-28T06:54:05Z</time>
      </trkpt>
      <trkpt lat="45.91364" lon="3.03311">
        <ele>600</ele>
        <time>2013-12-28T06:54:05Z</time>
      </trkpt>
      <trkpt lat="45.91385" lon="3.03298">
        <ele>600</ele>
        <time>2013-12-28T06:54:05Z</time>
      </trkpt>
      <trkpt lat="45.91411" lon="3.03289">
        <ele>601</ele>
        <time>2013-12-28T06:54:05Z</time>
      </trkpt>
      <trkpt lat="45.91424" lon="3.03261">
        <ele>605</ele>
        <time>2013-12-28T06:54:05Z</time>
      </trkpt>
      <trkpt lat="45.91407" lon="3.03205">
        <ele>609</ele>
        <time>2013-12-28T06:54:05Z</time>
      </trkpt>
      <trkpt lat="45.91329" lon="3.03062">
        <ele>625</ele>
        <time>2013-12-28T06:54:05Z</time>
      </trkpt>
      <trkpt lat="45.91282" lon="3.03018">
        <ele>627</ele>
        <time>2013-12-28T06:54:05Z</time>
      </trkpt>
      <trkpt lat="45.9124" lon="3.02972">
        <ele>624</ele>
        <time>2013-12-28T06:54:05Z</time>
      </trkpt>
      <trkpt lat="45.91171" lon="3.02949">
        <ele>632</ele>
        <time>2013-12-28T06:54:05Z</time>
      </trkpt>
      <trkpt lat="45.91146" lon="3.02944">
        <ele>637</ele>
        <time>2013-12-28T06:54:05Z</time>
      </trkpt>
      <trkpt lat="45.91132" lon="3.02921">
        <ele>637</ele>
        <time>2013-12-28T06:54:05Z</time>
      </trkpt>
      <trkpt lat="45.91124" lon="3.0289">
        <ele>639</ele>
        <time>2013-12-28T06:54:05Z</time>
      </trkpt>
      <trkpt lat="45.91163" lon="3.02865">
        <ele>636</ele>
        <time>2013-12-28T06:54:05Z</time>
      </trkpt>
      <trkpt lat="45.9121" lon="3.0284">
        <ele>640</ele>
        <time>2013-12-28T06:54:05Z</time>
      </trkpt>
      <trkpt lat="45.91244" lon="3.02824">
        <ele>638</ele>
        <time>2013-12-28T06:54:05Z</time>
      </trkpt>
      <trkpt lat="45.91258" lon="3.0281">
        <ele>639</ele>
        <time>2013-12-28T06:54:05Z</time>
      </trkpt>
      <trkpt lat="45.91231" lon="3.02742">
        <ele>647</ele>
        <time>2013-12-28T06:54:05Z</time>
      </trkpt>
      <trkpt lat="45.91196" lon="3.02612">
        <ele>655</ele>
        <time>2013-12-28T06:54:05Z</time>
      </trkpt>
      <trkpt lat="45.91174" lon="3.02525">
        <ele>660</ele>
        <time>2013-12-28T06:54:05Z</time>
      </trkpt>
      <trkpt lat="45.9116" lon="3.02483">
        <ele>661</ele>
        <time>2013-12-28T06:54:05Z</time>
      </trkpt>
      <trkpt lat="45.91144" lon="3.0246">
        <ele>664</ele>
        <time>2013-12-28T06:54:05Z</time>
      </trkpt>
      <trkpt lat="45.91087" lon="3.02424">
        <ele>675</ele>
        <time>2013-12-28T06:54:05Z</time>
      </trkpt>
      <trkpt lat="45.91041" lon="3.02385">
        <ele>681</ele>
        <time>2013-12-28T06:54:05Z</time>
      </trkpt>
      <trkpt lat="45.91022" lon="3.02344">
        <ele>681</ele>
        <time>2013-12-28T06:54:05Z</time>
      </trkpt>
      <trkpt lat="45.90992" lon="3.02323">
        <ele>688</ele>
        <time>2013-12-28T06:54:05Z</time>
      </trkpt>
      <trkpt lat="45.90968" lon="3.02313">
        <ele>693</ele>
        <time>2013-12-28T06:54:05Z</time>
      </trkpt>
      <trkpt lat="45.90956" lon="3.023">
        <ele>696</ele>
        <time>2013-12-28T06:54:05Z</time>
      </trkpt>
      <trkpt lat="45.90961" lon="3.02216">
        <ele>695</ele>
        <time>2013-12-28T06:54:05Z</time>
      </trkpt>
      <trkpt lat="45.90966" lon="3.02167">
        <ele>697</ele>
        <time>2013-12-28T06:54:05Z</time>
      </trkpt>
      <trkpt lat="45.90961" lon="3.02139">
        <ele>700</ele>
        <time>2013-12-28T06:54:05Z</time>
      </trkpt>
      <trkpt lat="45.90934" lon="3.02107">
        <ele>705</ele>
        <time>2013-12-28T06:54:05Z</time>
      </trkpt>
      <trkpt lat="45.90902" lon="3.02048">
        <ele>709</ele>
        <time>2013-12-28T06:54:05Z</time>
      </trkpt>
      <trkpt lat="45.90884" lon="3.02017">
        <ele>710</ele>
        <time>2013-12-28T06:54:05Z</time>
      </trkpt>
      <trkpt lat="45.9087" lon="3.01987">
        <ele>711</ele>
        <time>2013-12-28T06:54:05Z</time>
      </trkpt>
      <trkpt lat="45.90836" lon="3.02026">
        <ele>714</ele>
        <time>2013-12-28T06:54:05Z</time>
      </trkpt>
      <trkpt lat="45.90806" lon="3.02211">
        <ele>720</ele>
        <time>2013-12-28T06:54:05Z</time>
      </trkpt>
      <trkpt lat="45.90777" lon="3.02359">
        <ele>730</ele>
        <time>2013-12-28T06:54:05Z</time>
      </trkpt>
      <trkpt lat="45.90772" lon="3.0242">
        <ele>734</ele>
        <time>2013-12-28T06:54:05Z</time>
      </trkpt>
      <trkpt lat="45.9077" lon="3.02446">
        <ele>735</ele>
        <time>2013-12-28T06:54:05Z</time>
      </trkpt>
      <trkpt lat="45.90736" lon="3.02446">
        <ele>737</ele>
        <time>2013-12-28T06:54:05Z</time>
      </trkpt>
      <trkpt lat="45.90729" lon="3.0245">
        <ele>737</ele>
        <time>2013-12-28T06:54:05Z</time>
      </trkpt>
      <trkpt lat="45.90716" lon="3.02486">
        <ele>737</ele>
        <time>2013-12-28T06:54:05Z</time>
      </trkpt>
      <trkpt lat="45.90713" lon="3.02526">
        <ele>735</ele>
        <time>2013-12-28T06:54:05Z</time>
      </trkpt>
      <trkpt lat="45.90705" lon="3.02558">
        <ele>734</ele>
        <time>2013-12-28T06:54:05Z</time>
      </trkpt>
      <trkpt lat="45.90694" lon="3.02582">
        <ele>733</ele>
        <time>2013-12-28T06:54:05Z</time>
      </trkpt>
      <trkpt lat="45.90671" lon="3.02561">
        <ele>731</ele>
        <time>2013-12-28T06:54:05Z</time>
      </trkpt>
      <trkpt lat="45.90657" lon="3.02512">
        <ele>729</ele>
        <time>2013-12-28T06:54:05Z</time>
      </trkpt>
      <trkpt lat="45.90641" lon="3.0249">
        <ele>726</ele>
        <time>2013-12-28T06:54:05Z</time>
      </trkpt>
      <trkpt lat="45.90604" lon="3.02523">
        <ele>724</ele>
        <time>2013-12-28T06:54:05Z</time>
      </trkpt>
      <trkpt lat="45.90557" lon="3.02551">
        <ele>724</ele>
        <time>2013-12-28T06:54:05Z</time>
      </trkpt>
      <trkpt lat="45.90516" lon="3.02562">
        <ele>723</ele>
        <time>2013-12-28T06:54:05Z</time>
      </trkpt>
      <trkpt lat="45.90446" lon="3.0265">
        <ele>723</ele>
        <time>2013-12-28T06:54:05Z</time>
      </trkpt>
      <trkpt lat="45.90376" lon="3.02775">
        <ele>722</ele>
        <time>2013-12-28T06:54:05Z</time>
      </trkpt>
      <trkpt lat="45.90335" lon="3.02916">
        <ele>722</ele>
        <time>2013-12-28T06:54:05Z</time>
      </trkpt>
      <trkpt lat="45.90321" lon="3.02991">
        <ele>722</ele>
        <time>2013-12-28T06:54:05Z</time>
      </trkpt>
      <trkpt lat="45.90306" lon="3.03094">
        <ele>718</ele>
        <time>2013-12-28T06:54:05Z</time>
      </trkpt>
      <trkpt lat="45.9031" lon="3.03152">
        <ele>717</ele>
        <time>2013-12-28T06:54:05Z</time>
      </trkpt>
      <trkpt lat="45.90322" lon="3.03215">
        <ele>714</ele>
        <time>2013-12-28T06:54:05Z</time>
      </trkpt>
      <trkpt lat="45.90324" lon="3.03244">
        <ele>712</ele>
        <time>2013-12-28T06:54:05Z</time>
      </trkpt>
      <trkpt lat="45.90317" lon="3.03312">
        <ele>707</ele>
        <time>2013-12-28T06:54:05Z</time>
      </trkpt>
      <trkpt lat="45.90311" lon="3.03338">
        <ele>705</ele>
        <time>2013-12-28T06:54:05Z</time>
      </trkpt>
      <trkpt lat="45.90327" lon="3.03394">
        <ele>698</ele>
        <time>2013-12-28T06:54:05Z</time>
      </trkpt>
      <trkpt lat="45.90346" lon="3.03443">
        <ele>693</ele>
        <time>2013-12-28T06:54:05Z</time>
      </trkpt>
      <trkpt lat="45.90378" lon="3.03491">
        <ele>686</ele>
        <time>2013-12-28T06:54:05Z</time>
      </trkpt>
      <trkpt lat="45.9041" lon="3.03535">
        <ele>680</ele>
        <time>2013-12-28T06:54:05Z</time>
      </trkpt>
      <trkpt lat="45.90426" lon="3.03571">
        <ele>679</ele>
        <time>2013-12-28T06:54:05Z</time>
      </trkpt>
      <trkpt lat="45.90456" lon="3.03613">
        <ele>674</ele>
        <time>2013-12-28T06:54:05Z</time>
      </trkpt>
      <trkpt lat="45.90504" lon="3.03636">
        <ele>666</ele>
        <time>2013-12-28T06:54:05Z</time>
      </trkpt>
      <trkpt lat="45.90521" lon="3.03658">
        <ele>662</ele>
        <time>2013-12-28T06:54:05Z</time>
      </trkpt>
      <trkpt lat="45.90533" lon="3.03729">
        <ele>657</ele>
        <time>2013-12-28T06:54:05Z</time>
      </trkpt>
      <trkpt lat="45.90534" lon="3.03787">
        <ele>654</ele>
        <time>2013-12-28T06:54:05Z</time>
      </trkpt>
      <trkpt lat="45.9052" lon="3.03811">
        <ele>653</ele>
        <time>2013-12-28T06:54:05Z</time>
      </trkpt>
      <trkpt lat="45.90465" lon="3.03852">
        <ele>650</ele>
        <time>2013-12-28T06:54:05Z</time>
      </trkpt>
      <trkpt lat="45.90435" lon="3.03888">
        <ele>647</ele>
        <time>2013-12-28T06:54:05Z</time>
      </trkpt>
      <trkpt lat="45.90408" lon="3.03954">
        <ele>643</ele>
        <time>2013-12-28T06:54:05Z</time>
      </trkpt>
      <trkpt lat="45.90392" lon="3.03997">
        <ele>643</ele>
        <time>2013-12-28T06:54:05Z</time>
      </trkpt>
      <trkpt lat="45.90372" lon="3.04013">
        <ele>644</ele>
        <time>2013-12-28T06:54:05Z</time>
      </trkpt>
      <trkpt lat="45.90299" lon="3.03977">
        <ele>650</ele>
        <time>2013-12-28T06:54:05Z</time>
      </trkpt>
      <trkpt lat="45.9025" lon="3.03926">
        <ele>648</ele>
        <time>2013-12-28T06:54:05Z</time>
      </trkpt>
      <trkpt lat="45.90206" lon="3.03866">
        <ele>638</ele>
        <time>2013-12-28T06:54:05Z</time>
      </trkpt>
      <trkpt lat="45.90176" lon="3.03814">
        <ele>633</ele>
        <time>2013-12-28T06:54:05Z</time>
      </trkpt>
      <trkpt lat="45.90151" lon="3.03775">
        <ele>631</ele>
        <time>2013-12-28T06:54:05Z</time>
      </trkpt>
      <trkpt lat="45.90128" lon="3.0373">
        <ele>629</ele>
        <time>2013-12-28T06:54:05Z</time>
      </trkpt>
      <trkpt lat="45.90112" lon="3.03694">
        <ele>630</ele>
        <time>2013-12-28T06:54:05Z</time>
      </trkpt>
      <trkpt lat="45.90124" lon="3.0359">
        <ele>637</ele>
        <time>2013-12-28T06:54:05Z</time>
      </trkpt>
      <trkpt lat="45.90116" lon="3.03535">
        <ele>640</ele>
        <time>2013-12-28T06:54:05Z</time>
      </trkpt>
      <trkpt lat="45.90078" lon="3.03391">
        <ele>648</ele>
        <time>2013-12-28T06:54:05Z</time>
      </trkpt>
      <trkpt lat="45.90059" lon="3.03299">
        <ele>653</ele>
        <time>2013-12-28T06:54:05Z</time>
      </trkpt>
      <trkpt lat="45.90048" lon="3.0322">
        <ele>656</ele>
        <time>2013-12-28T06:54:05Z</time>
      </trkpt>
      <trkpt lat="45.90033" lon="3.03157">
        <ele>656</ele>
        <time>2013-12-28T06:54:05Z</time>
      </trkpt>
      <trkpt lat="45.90032" lon="3.03139">
        <ele>656</ele>
        <time>2013-12-28T06:54:05Z</time>
      </trkpt>
      <trkpt lat="45.90018" lon="3.03123">
        <ele>652</ele>
        <time>2013-12-28T06:54:05Z</time>
      </trkpt>
      <trkpt lat="45.90004" lon="3.03111">
        <ele>647</ele>
        <time>2013-12-28T06:54:05Z</time>
      </trkpt>
      <trkpt lat="45.89985" lon="3.03101">
        <ele>639</ele>
        <time>2013-12-28T06:54:05Z</time>
      </trkpt>
      <trkpt lat="45.8999" lon="3.0304">
        <ele>634</ele>
        <time>2013-12-28T06:54:05Z</time>
      </trkpt>
      <trkpt lat="45.89986" lon="3.03019">
        <ele>631</ele>
        <time>2013-12-28T06:54:05Z</time>
      </trkpt>
      <trkpt lat="45.89972" lon="3.03001">
        <ele>624</ele>
        <time>2013-12-28T06:54:05Z</time>
      </trkpt>
      <trkpt lat="45.89944" lon="3.02969">
        <ele>610</ele>
        <time>2013-12-28T06:54:05Z</time>
      </trkpt>
      <trkpt lat="45.89933" lon="3.02967">
        <ele>605</ele>
        <time>2013-12-28T06:54:05Z</time>
      </trkpt>
      <trkpt lat="45.89919" lon="3.02969">
        <ele>599</ele>
        <time>2013-12-28T06:54:05Z</time>
      </trkpt>
      <trkpt lat="45.89906" lon="3.02959">
        <ele>593</ele>
        <time>2013-12-28T06:54:05Z</time>
      </trkpt>
      <trkpt lat="45.89903" lon="3.02954">
        <ele>591</ele>
        <time>2013-12-28T06:54:05Z</time>
      </trkpt>
      <trkpt lat="45.89883" lon="3.02997">
        <ele>593</ele>
        <time>2013-12-28T06:54:05Z</time>
      </trkpt>
      <trkpt lat="45.89864" lon="3.03034">
        <ele>587</ele>
        <time>2013-12-28T06:54:05Z</time>
      </trkpt>
      <trkpt lat="45.89854" lon="3.03076">
        <ele>584</ele>
        <time>2013-12-28T06:54:05Z</time>
      </trkpt>
      <trkpt lat="45.89853" lon="3.03103">
        <ele>582</ele>
        <time>2013-12-28T06:54:05Z</time>
      </trkpt>
      <trkpt lat="45.89853" lon="3.03121">
        <ele>582</ele>
        <time>2013-12-28T06:54:05Z</time>
      </trkpt>
      <trkpt lat="45.89849" lon="3.03146">
        <ele>582</ele>
        <time>2013-12-28T06:54:05Z</time>
      </trkpt>
      <trkpt lat="45.89857" lon="3.03176">
        <ele>580</ele>
        <time>2013-12-28T06:54:05Z</time>
      </trkpt>
      <trkpt lat="45.8986" lon="3.03198">
        <ele>583</ele>
        <time>2013-12-28T06:54:05Z</time>
      </trkpt>
      <trkpt lat="45.89847" lon="3.03232">
        <ele>583</ele>
        <time>2013-12-28T06:54:05Z</time>
      </trkpt>
      <trkpt lat="45.89812" lon="3.03267">
        <ele>582</ele>
        <time>2013-12-28T06:54:05Z</time>
      </trkpt>
      <trkpt lat="45.89799" lon="3.03291">
        <ele>585</ele>
        <time>2013-12-28T06:54:05Z</time>
      </trkpt>
      <trkpt lat="45.89798" lon="3.03339">
        <ele>585</ele>
        <time>2013-12-28T06:54:05Z</time>
      </trkpt>
      <trkpt lat="45.898" lon="3.03402">
        <ele>584</ele>
        <time>2013-12-28T06:54:05Z</time>
      </trkpt>
      <trkpt lat="45.89805" lon="3.03436">
        <ele>583</ele>
        <time>2013-12-28T06:54:05Z</time>
      </trkpt>
      <trkpt lat="45.89812" lon="3.03481">
        <ele>581</ele>
        <time>2013-12-28T06:54:05Z</time>
      </trkpt>
      <trkpt lat="45.89822" lon="3.03518">
        <ele>583</ele>
        <time>2013-12-28T06:54:05Z</time>
      </trkpt>
      <trkpt lat="45.89833" lon="3.03546">
        <ele>583</ele>
        <time>2013-12-28T06:54:05Z</time>
      </trkpt>
      <trkpt lat="45.89858" lon="3.03569">
        <ele>578</ele>
        <time>2013-12-28T06:54:05Z</time>
      </trkpt>
      <trkpt lat="45.89884" lon="3.03595">
        <ele>577</ele>
        <time>2013-12-28T06:54:05Z</time>
      </trkpt>
      <trkpt lat="45.89891" lon="3.03617">
        <ele>576</ele>
        <time>2013-12-28T06:54:05Z</time>
      </trkpt>
      <trkpt lat="45.89879" lon="3.03677">
        <ele>577</ele>
        <time>2013-12-28T06:54:05Z</time>
      </trkpt>
      <trkpt lat="45.89871" lon="3.0373">
        <ele>577</ele>
        <time>2013-12-28T06:54:05Z</time>
      </trkpt>
      <trkpt lat="45.89882" lon="3.03801">
        <ele>573</ele>
        <time>2013-12-28T06:54:05Z</time>
      </trkpt>
      <trkpt lat="45.89889" lon="3.03843">
        <ele>570</ele>
        <time>2013-12-28T06:54:05Z</time>
      </trkpt>
      <trkpt lat="45.89897" lon="3.03882">
        <ele>566</ele>
        <time>2013-12-28T06:54:05Z</time>
      </trkpt>
      <trkpt lat="45.89899" lon="3.0392">
        <ele>564</ele>
        <time>2013-12-28T06:54:05Z</time>
      </trkpt>
      <trkpt lat="45.8989" lon="3.0397">
        <ele>562</ele>
        <time>2013-12-28T06:54:05Z</time>
      </trkpt>
      <trkpt lat="45.89885" lon="3.03991">
        <ele>562</ele>
        <time>2013-12-28T06:54:05Z</time>
      </trkpt>
      <trkpt lat="45.89885" lon="3.04036">
        <ele>559</ele>
        <time>2013-12-28T06:54:05Z</time>
      </trkpt>
      <trkpt lat="45.89891" lon="3.04065">
        <ele>556</ele>
        <time>2013-12-28T06:54:05Z</time>
      </trkpt>
      <trkpt lat="45.89909" lon="3.04093">
        <ele>558</ele>
        <time>2013-12-28T06:54:05Z</time>
      </trkpt>
      <trkpt lat="45.89925" lon="3.04119">
        <ele>558</ele>
        <time>2013-12-28T06:54:05Z</time>
      </trkpt>
      <trkpt lat="45.89941" lon="3.04148">
        <ele>553</ele>
        <time>2013-12-28T06:54:05Z</time>
      </trkpt>
      <trkpt lat="45.89959" lon="3.04166">
        <ele>552</ele>
        <time>2013-12-28T06:54:05Z</time>
      </trkpt>
      <trkpt lat="45.89966" lon="3.0419">
        <ele>549</ele>
        <time>2013-12-28T06:54:05Z</time>
      </trkpt>
      <trkpt lat="45.89967" lon="3.04218">
        <ele>543</ele>
        <time>2013-12-28T06:54:05Z</time>
      </trkpt>
      <trkpt lat="45.89966" lon="3.04248">
        <ele>535</ele>
        <time>2013-12-28T06:54:05Z</time>
      </trkpt>
      <trkpt lat="45.89951" lon="3.04267">
        <ele>534</ele>
        <time>2013-12-28T06:54:05Z</time>
      </trkpt>
      <trkpt lat="45.89928" lon="3.04272">
        <ele>542</ele>
        <time>2013-12-28T06:54:05Z</time>
      </trkpt>
      <trkpt lat="45.89907" lon="3.04283">
        <ele>548</ele>
        <time>2013-12-28T06:54:05Z</time>
      </trkpt>
      <trkpt lat="45.89888" lon="3.04297">
        <ele>551</ele>
        <time>2013-12-28T06:54:05Z</time>
      </trkpt>
      <trkpt lat="45.89871" lon="3.04334">
        <ele>542</ele>
        <time>2013-12-28T06:54:05Z</time>
      </trkpt>
      <trkpt lat="45.8986" lon="3.04334">
        <ele>544</ele>
        <time>2013-12-28T06:54:05Z</time>
      </trkpt>
      <trkpt lat="45.8982" lon="3.04325">
        <ele>552</ele>
        <time>2013-12-28T06:54:05Z</time>
      </trkpt>
      <trkpt lat="45.89783" lon="3.04346">
        <ele>552</ele>
        <time>2013-12-28T06:54:05Z</time>
      </trkpt>
      <trkpt lat="45.8976" lon="3.04382">
        <ele>548</ele>
        <time>2013-12-28T06:54:05Z</time>
      </trkpt>
      <trkpt lat="45.89759" lon="3.04431">
        <ele>538</ele>
        <time>2013-12-28T06:54:05Z</time>
      </trkpt>
      <trkpt lat="45.89756" lon="3.04479">
        <ele>530</ele>
        <time>2013-12-28T06:54:05Z</time>
      </trkpt>
      <trkpt lat="45.89754" lon="3.04561">
        <ele>525</ele>
        <time>2013-12-28T06:54:05Z</time>
      </trkpt>
      <trkpt lat="45.8975" lon="3.04621">
        <ele>522</ele>
        <time>2013-12-28T06:54:05Z</time>
      </trkpt>
      <trkpt lat="45.89736" lon="3.04672">
        <ele>515</ele>
        <time>2013-12-28T06:54:05Z</time>
      </trkpt>
      <trkpt lat="45.89715" lon="3.04691">
        <ele>515</ele>
        <time>2013-12-28T06:54:05Z</time>
      </trkpt>
      <trkpt lat="45.8969" lon="3.04721">
        <ele>508</ele>
        <time>2013-12-28T06:54:05Z</time>
      </trkpt>
      <trkpt lat="45.89652" lon="3.04718">
        <ele>513</ele>
        <time>2013-12-28T06:54:05Z</time>
      </trkpt>
      <trkpt lat="45.896" lon="3.04711">
        <ele>515</ele>
        <time>2013-12-28T06:54:05Z</time>
      </trkpt>
      <trkpt lat="45.89559" lon="3.0471">
        <ele>513</ele>
        <time>2013-12-28T06:54:05Z</time>
      </trkpt>
      <trkpt lat="45.89489" lon="3.04699">
        <ele>511</ele>
        <time>2013-12-28T06:54:05Z</time>
      </trkpt>
      <trkpt lat="45.89462" lon="3.04696">
        <ele>511</ele>
        <time>2013-12-28T06:54:05Z</time>
      </trkpt>
      <trkpt lat="45.89447" lon="3.04683">
        <ele>514</ele>
        <time>2013-12-28T06:54:05Z</time>
      </trkpt>
      <trkpt lat="45.89406" lon="3.04718">
        <ele>500</ele>
        <time>2013-12-28T06:54:05Z</time>
      </trkpt>
      <trkpt lat="45.89362" lon="3.04711">
        <ele>496</ele>
        <time>2013-12-28T06:54:05Z</time>
      </trkpt>
      <trkpt lat="45.89317" lon="3.04671">
        <ele>494</ele>
        <time>2013-12-28T06:54:05Z</time>
      </trkpt>
      <trkpt lat="45.89286" lon="3.04626">
        <ele>493</ele>
        <time>2013-12-28T06:54:05Z</time>
      </trkpt>
      <trkpt lat="45.89265" lon="3.04595">
        <ele>492</ele>
        <time>2013-12-28T06:54:05Z</time>
      </trkpt>
      <trkpt lat="45.89249" lon="3.04569">
        <ele>502</ele>
        <time>2013-12-28T06:54:05Z</time>
      </trkpt>
      <trkpt lat="45.89229" lon="3.04585">
        <ele>504</ele>
        <time>2013-12-28T06:54:05Z</time>
      </trkpt>
      <trkpt lat="45.89186" lon="3.04612">
        <ele>504</ele>
        <time>2013-12-28T06:54:05Z</time>
      </trkpt>
      <trkpt lat="45.89169" lon="3.04615">
        <ele>505</ele>
        <time>2013-12-28T06:54:05Z</time>
      </trkpt>
      <trkpt lat="45.89133" lon="3.04613">
        <ele>504</ele>
        <time>2013-12-28T06:54:05Z</time>
      </trkpt>
      <trkpt lat="45.89077" lon="3.04588">
        <ele>504</ele>
        <time>2013-12-28T06:54:05Z</time>
      </trkpt>
      <trkpt lat="45.89045" lon="3.04557">
        <ele>506</ele>
        <time>2013-12-28T06:54:05Z</time>
      </trkpt>
      <trkpt lat="45.89006" lon="3.0449">
        <ele>513</ele>
        <time>2013-12-28T06:54:05Z</time>
      </trkpt>
      <trkpt lat="45.88984" lon="3.04455">
        <ele>514</ele>
        <time>2013-12-28T06:54:05Z</time>
      </trkpt>
      <trkpt lat="45.88969" lon="3.04416">
        <ele>517</ele>
        <time>2013-12-28T06:54:05Z</time>
      </trkpt>
      <trkpt lat="45.88951" lon="3.04388">
        <ele>516</ele>
        <time>2013-12-28T06:54:05Z</time>
      </trkpt>
      <trkpt lat="45.88932" lon="3.0436">
        <ele>515</ele>
        <time>2013-12-28T06:54:05Z</time>
      </trkpt>
      <trkpt lat="45.88919" lon="3.04315">
        <ele>519</ele>
        <time>2013-12-28T06:54:05Z</time>
      </trkpt>
      <trkpt lat="45.8889" lon="3.04276">
        <ele>516</ele>
        <time>2013-12-28T06:54:05Z</time>
      </trkpt>
      <trkpt lat="45.88853" lon="3.04239">
        <ele>509</ele>
        <time>2013-12-28T06:54:05Z</time>
      </trkpt>
      <trkpt lat="45.88831" lon="3.04206">
        <ele>506</ele>
        <time>2013-12-28T06:54:05Z</time>
      </trkpt>
      <trkpt lat="45.8882" lon="3.04179">
        <ele>506</ele>
        <time>2013-12-28T06:54:05Z</time>
      </trkpt>
      <trkpt lat="45.88803" lon="3.04135">
        <ele>503</ele>
        <time>2013-12-28T06:54:05Z</time>
      </trkpt>
      <trkpt lat="45.88799" lon="3.04104">
        <ele>503</ele>
        <time>2013-12-28T06:54:05Z</time>
      </trkpt>
      <trkpt lat="45.88801" lon="3.04037">
        <ele>505</ele>
        <time>2013-12-28T06:54:05Z</time>
      </trkpt>
      <trkpt lat="45.88814" lon="3.0398">
        <ele>505</ele>
        <time>2013-12-28T06:54:05Z</time>
      </trkpt>
      <trkpt lat="45.88815" lon="3.03937">
        <ele>499</ele>
        <time>2013-12-28T06:54:05Z</time>
      </trkpt>
      <trkpt lat="45.88804" lon="3.03916">
        <ele>502</ele>
        <time>2013-12-28T06:54:05Z</time>
      </trkpt>
      <trkpt lat="45.88786" lon="3.03898">
        <ele>506</ele>
        <time>2013-12-28T06:54:05Z</time>
      </trkpt>
      <trkpt lat="45.88768" lon="3.03891">
        <ele>508</ele>
        <time>2013-12-28T06:54:05Z</time>
      </trkpt>
      <trkpt lat="45.88732" lon="3.0386">
        <ele>508</ele>
        <time>2013-12-28T06:54:05Z</time>
      </trkpt>
      <trkpt lat="45.88708" lon="3.03797">
        <ele>515</ele>
        <time>2013-12-28T06:54:05Z</time>
      </trkpt>
      <trkpt lat="45.88678" lon="3.03742">
        <ele>520</ele>
        <time>2013-12-28T06:54:05Z</time>
      </trkpt>
      <trkpt lat="45.88644" lon="3.03695">
        <ele>527</ele>
        <time>2013-12-28T06:54:05Z</time>
      </trkpt>
      <trkpt lat="45.88613" lon="3.03653">
        <ele>532</ele>
        <time>2013-12-28T06:54:05Z</time>
      </trkpt>
      <trkpt lat="45.88579" lon="3.0362">
        <ele>535</ele>
        <time>2013-12-28T06:54:05Z</time>
      </trkpt>
      <trkpt lat="45.88573" lon="3.03591">
        <ele>539</ele>
        <time>2013-12-28T06:54:05Z</time>
      </trkpt>
      <trkpt lat="45.88551" lon="3.03478">
        <ele>544</ele>
        <time>2013-12-28T06:54:05Z</time>
      </trkpt>
      <trkpt lat="45.8854" lon="3.03396">
        <ele>556</ele>
        <time>2013-12-28T06:54:05Z</time>
      </trkpt>
      <trkpt lat="45.88527" lon="3.03339">
        <ele>563</ele>
        <time>2013-12-28T06:54:05Z</time>
      </trkpt>
      <trkpt lat="45.88522" lon="3.03292">
        <ele>568</ele>
        <time>2013-12-28T06:54:05Z</time>
      </trkpt>
      <trkpt lat="45.88509" lon="3.03258">
        <ele>570</ele>
        <time>2013-12-28T06:54:05Z</time>
      </trkpt>
      <trkpt lat="45.88497" lon="3.03266">
        <ele>571</ele>
        <time>2013-12-28T06:54:05Z</time>
      </trkpt>
      <trkpt lat="45.88496" lon="3.03286">
        <ele>568</ele>
        <time>2013-12-28T06:54:05Z</time>
      </trkpt>
      <trkpt lat="45.88502" lon="3.03326">
        <ele>564</ele>
        <time>2013-12-28T06:54:05Z</time>
      </trkpt>
      <trkpt lat="45.885" lon="3.03373">
        <ele>564</ele>
        <time>2013-12-28T06:54:05Z</time>
      </trkpt>
      <trkpt lat="45.88493" lon="3.03474">
        <ele>567</ele>
        <time>2013-12-28T06:54:05Z</time>
      </trkpt>
      <trkpt lat="45.88489" lon="3.03522">
        <ele>567</ele>
        <time>2013-12-28T06:54:05Z</time>
      </trkpt>
      <trkpt lat="45.88483" lon="3.03551">
        <ele>568</ele>
        <time>2013-12-28T06:54:05Z</time>
      </trkpt>
      <trkpt lat="45.88459" lon="3.0357">
        <ele>577</ele>
        <time>2013-12-28T06:54:05Z</time>
      </trkpt>
      <trkpt lat="45.88449" lon="3.03586">
        <ele>580</ele>
        <time>2013-12-28T06:54:05Z</time>
      </trkpt>
      <trkpt lat="45.88448" lon="3.03604">
        <ele>578</ele>
        <time>2013-12-28T06:54:05Z</time>
      </trkpt>
      <trkpt lat="45.88453" lon="3.03641">
        <ele>580</ele>
        <time>2013-12-28T06:54:05Z</time>
      </trkpt>
      <trkpt lat="45.88473" lon="3.03675">
        <ele>578</ele>
        <time>2013-12-28T06:54:05Z</time>
      </trkpt>
      <trkpt lat="45.88489" lon="3.03719">
        <ele>583</ele>
        <time>2013-12-28T06:54:05Z</time>
      </trkpt>
      <trkpt lat="45.88511" lon="3.03767">
        <ele>588</ele>
        <time>2013-12-28T06:54:05Z</time>
      </trkpt>
      <trkpt lat="45.88503" lon="3.03769">
        <ele>592</ele>
        <time>2013-12-28T06:54:05Z</time>
      </trkpt>
      <trkpt lat="45.88484" lon="3.03757">
        <ele>592</ele>
        <time>2013-12-28T06:54:05Z</time>
      </trkpt>
      <trkpt lat="45.88469" lon="3.03752">
        <ele>594</ele>
        <time>2013-12-28T06:54:05Z</time>
      </trkpt>
      <trkpt lat="45.88449" lon="3.03766">
        <ele>596</ele>
        <time>2013-12-28T06:54:05Z</time>
      </trkpt>
      <trkpt lat="45.88403" lon="3.03748">
        <ele>597</ele>
        <time>2013-12-28T06:54:05Z</time>
      </trkpt>
      <trkpt lat="45.88354" lon="3.0372">
        <ele>599</ele>
        <time>2013-12-28T06:54:05Z</time>
      </trkpt>
      <trkpt lat="45.88326" lon="3.03704">
        <ele>601</ele>
        <time>2013-12-28T06:54:05Z</time>
      </trkpt>
      <trkpt lat="45.88293" lon="3.0369">
        <ele>600</ele>
        <time>2013-12-28T06:54:05Z</time>
      </trkpt>
      <trkpt lat="45.88241" lon="3.03646">
        <ele>609</ele>
        <time>2013-12-28T06:54:05Z</time>
      </trkpt>
      <trkpt lat="45.88197" lon="3.03636">
        <ele>614</ele>
        <time>2013-12-28T06:54:05Z</time>
      </trkpt>
      <trkpt lat="45.88129" lon="3.03643">
        <ele>615</ele>
        <time>2013-12-28T06:54:05Z</time>
      </trkpt>
      <trkpt lat="45.88042" lon="3.0366">
        <ele>615</ele>
        <time>2013-12-28T06:54:05Z</time>
      </trkpt>
      <trkpt lat="45.87966" lon="3.03652">
        <ele>625</ele>
        <time>2013-12-28T06:54:05Z</time>
      </trkpt>
      <trkpt lat="45.8791" lon="3.03658">
        <ele>628</ele>
        <time>2013-12-28T06:54:05Z</time>
      </trkpt>
      <trkpt lat="45.87883" lon="3.03658">
        <ele>632</ele>
        <time>2013-12-28T06:54:05Z</time>
      </trkpt>
      <trkpt lat="45.87811" lon="3.03673">
        <ele>633</ele>
        <time>2013-12-28T06:54:05Z</time>
      </trkpt>
      <trkpt lat="45.87761" lon="3.03692">
        <ele>630</ele>
        <time>2013-12-28T06:54:05Z</time>
      </trkpt>
      <trkpt lat="45.87717" lon="3.03701">
        <ele>629</ele>
        <time>2013-12-28T06:54:05Z</time>
      </trkpt>
      <trkpt lat="45.87675" lon="3.03684">
        <ele>634</ele>
        <time>2013-12-28T06:54:05Z</time>
      </trkpt>
      <trkpt lat="45.87632" lon="3.0368">
        <ele>629</ele>
        <time>2013-12-28T06:54:05Z</time>
      </trkpt>
      <trkpt lat="45.87609" lon="3.03669">
        <ele>628</ele>
        <time>2013-12-28T06:54:05Z</time>
      </trkpt>
      <trkpt lat="45.87558" lon="3.03605">
        <ele>624</ele>
        <time>2013-12-28T06:54:05Z</time>
      </trkpt>
      <trkpt lat="45.87529" lon="3.03552">
        <ele>623</ele>
        <time>2013-12-28T06:54:05Z</time>
      </trkpt>
      <trkpt lat="45.87505" lon="3.0349">
        <ele>625</ele>
        <time>2013-12-28T06:54:05Z</time>
      </trkpt>
      <trkpt lat="45.87485" lon="3.03426">
        <ele>625</ele>
        <time>2013-12-28T06:54:05Z</time>
      </trkpt>
      <trkpt lat="45.87479" lon="3.0341">
        <ele>624</ele>
        <time>2013-12-28T06:54:05Z</time>
      </trkpt>
      <trkpt lat="45.87479" lon="3.03366">
        <ele>620</ele>
        <time>2013-12-28T06:54:05Z</time>
      </trkpt>
      <trkpt lat="45.8746" lon="3.03337">
        <ele>613</ele>
        <time>2013-12-28T06:54:05Z</time>
      </trkpt>
      <trkpt lat="45.87425" lon="3.03333">
        <ele>607</ele>
        <time>2013-12-28T06:54:05Z</time>
      </trkpt>
      <trkpt lat="45.87376" lon="3.03334">
        <ele>595</ele>
        <time>2013-12-28T06:54:05Z</time>
      </trkpt>
      <trkpt lat="45.87347" lon="3.03339">
        <ele>588</ele>
        <time>2013-12-28T06:54:05Z</time>
      </trkpt>
      <trkpt lat="45.87325" lon="3.03361">
        <ele>583</ele>
        <time>2013-12-28T06:54:05Z</time>
      </trkpt>
      <trkpt lat="45.87287" lon="3.03391">
        <ele>573</ele>
        <time>2013-12-28T06:54:05Z</time>
      </trkpt>
      <trkpt lat="45.87281" lon="3.03383">
        <ele>571</ele>
        <time>2013-12-28T06:54:05Z</time>
      </trkpt>
      <trkpt lat="45.87317" lon="3.03303">
        <ele>575</ele>
        <time>2013-12-28T06:54:05Z</time>
      </trkpt>
      <trkpt lat="45.87364" lon="3.03244">
        <ele>579</ele>
        <time>2013-12-28T06:54:05Z</time>
      </trkpt>
      <trkpt lat="45.87398" lon="3.03212">
        <ele>578</ele>
        <time>2013-12-28T06:54:05Z</time>
      </trkpt>
      <trkpt lat="45.8745" lon="3.03181">
        <ele>580</ele>
        <time>2013-12-28T06:54:05Z</time>
      </trkpt>
      <trkpt lat="45.87473" lon="3.03162">
        <ele>580</ele>
        <time>2013-12-28T06:54:05Z</time>
      </trkpt>
      <trkpt lat="45.87511" lon="3.03106">
        <ele>580</ele>
        <time>2013-12-28T06:54:05Z</time>
      </trkpt>
      <trkpt lat="45.87522" lon="3.03053">
        <ele>581</ele>
        <time>2013-12-28T06:54:05Z</time>
      </trkpt>
      <trkpt lat="45.87522" lon="3.03003">
        <ele>581</ele>
        <time>2013-12-28T06:54:05Z</time>
      </trkpt>
      <trkpt lat="45.87511" lon="3.02937">
        <ele>582</ele>
        <time>2013-12-28T06:54:05Z</time>
      </trkpt>
      <trkpt lat="45.87504" lon="3.02885">
        <ele>586</ele>
        <time>2013-12-28T06:54:05Z</time>
      </trkpt>
      <trkpt lat="45.87486" lon="3.02853">
        <ele>587</ele>
        <time>2013-12-28T06:54:05Z</time>
      </trkpt>
      <trkpt lat="45.87462" lon="3.0281">
        <ele>587</ele>
        <time>2013-12-28T06:54:05Z</time>
      </trkpt>
      <trkpt lat="45.87453" lon="3.02778">
        <ele>588</ele>
        <time>2013-12-28T06:54:05Z</time>
      </trkpt>
      <trkpt lat="45.87449" lon="3.02739">
        <ele>590</ele>
        <time>2013-12-28T06:54:05Z</time>
      </trkpt>
      <trkpt lat="45.87459" lon="3.02711">
        <ele>593</ele>
        <time>2013-12-28T06:54:05Z</time>
      </trkpt>
      <trkpt lat="45.87485" lon="3.02704">
        <ele>597</ele>
        <time>2013-12-28T06:54:05Z</time>
      </trkpt>
      <trkpt lat="45.87519" lon="3.02716">
        <ele>600</ele>
        <time>2013-12-28T06:54:05Z</time>
      </trkpt>
      <trkpt lat="45.87561" lon="3.02744">
        <ele>608</ele>
        <time>2013-12-28T06:54:05Z</time>
      </trkpt>
      <trkpt lat="45.87664" lon="3.02752">
        <ele>617</ele>
        <time>2013-12-28T06:54:05Z</time>
      </trkpt>
      <trkpt lat="45.87745" lon="3.02754">
        <ele>622</ele>
        <time>2013-12-28T06:54:05Z</time>
      </trkpt>
      <trkpt lat="45.87797" lon="3.02758">
        <ele>631</ele>
        <time>2013-12-28T06:54:05Z</time>
      </trkpt>
      <trkpt lat="45.87913" lon="3.02774">
        <ele>654</ele>
        <time>2013-12-28T06:54:05Z</time>
      </trkpt>
      <trkpt lat="45.87973" lon="3.02783">
        <ele>664</ele>
        <time>2013-12-28T06:54:05Z</time>
      </trkpt>
      <trkpt lat="45.88009" lon="3.02806">
        <ele>670</ele>
        <time>2013-12-28T06:54:05Z</time>
      </trkpt>
      <trkpt lat="45.88045" lon="3.02855">
        <ele>672</ele>
        <time>2013-12-28T06:54:05Z</time>
      </trkpt>
      <trkpt lat="45.88078" lon="3.02895">
        <ele>672</ele>
        <time>2013-12-28T06:54:05Z</time>
      </trkpt>
      <trkpt lat="45.88109" lon="3.02926">
        <ele>670</ele>
        <time>2013-12-28T06:54:05Z</time>
      </trkpt>
      <trkpt lat="45.88131" lon="3.02941">
        <ele>668</ele>
        <time>2013-12-28T06:54:05Z</time>
      </trkpt>
      <trkpt lat="45.88144" lon="3.02941">
        <ele>667</ele>
        <time>2013-12-28T06:54:05Z</time>
      </trkpt>
      <trkpt lat="45.88137" lon="3.02914">
        <ele>670</ele>
        <time>2013-12-28T06:54:05Z</time>
      </trkpt>
      <trkpt lat="45.88122" lon="3.02848">
        <ele>676</ele>
        <time>2013-12-28T06:54:05Z</time>
      </trkpt>
      <trkpt lat="45.88122" lon="3.02815">
        <ele>680</ele>
        <time>2013-12-28T06:54:05Z</time>
      </trkpt>
      <trkpt lat="45.8814" lon="3.02792">
        <ele>685</ele>
        <time>2013-12-28T06:54:05Z</time>
      </trkpt>
      <trkpt lat="45.88183" lon="3.02778">
        <ele>693</ele>
        <time>2013-12-28T06:54:05Z</time>
      </trkpt>
      <trkpt lat="45.88268" lon="3.02766">
        <ele>704</ele>
        <time>2013-12-28T06:54:05Z</time>
      </trkpt>
      <trkpt lat="45.88305" lon="3.02744">
        <ele>706</ele>
        <time>2013-12-28T06:54:05Z</time>
      </trkpt>
      <trkpt lat="45.88301" lon="3.02702">
        <ele>712</ele>
        <time>2013-12-28T06:54:05Z</time>
      </trkpt>
      <trkpt lat="45.8826" lon="3.02653">
        <ele>723</ele>
        <time>2013-12-28T06:54:05Z</time>
      </trkpt>
      <trkpt lat="45.88244" lon="3.02611">
        <ele>729</ele>
        <time>2013-12-28T06:54:05Z</time>
      </trkpt>
      <trkpt lat="45.88235" lon="3.0257">
        <ele>734</ele>
        <time>2013-12-28T06:54:05Z</time>
      </trkpt>
      <trkpt lat="45.88266" lon="3.02494">
        <ele>734</ele>
        <time>2013-12-28T06:54:05Z</time>
      </trkpt>
      <trkpt lat="45.883" lon="3.02436">
        <ele>733</ele>
        <time>2013-12-28T06:54:05Z</time>
      </trkpt>
      <trkpt lat="45.88359" lon="3.02405">
        <ele>734</ele>
        <time>2013-12-28T06:54:05Z</time>
      </trkpt>
      <trkpt lat="45.8841" lon="3.02378">
        <ele>738</ele>
        <time>2013-12-28T06:54:05Z</time>
      </trkpt>
      <trkpt lat="45.88465" lon="3.02367">
        <ele>739</ele>
        <time>2013-12-28T06:54:05Z</time>
      </trkpt>
      <trkpt lat="45.88502" lon="3.02369">
        <ele>741</ele>
        <time>2013-12-28T06:54:05Z</time>
      </trkpt>
      <trkpt lat="45.88555" lon="3.02364">
        <ele>742</ele>
        <time>2013-12-28T06:54:05Z</time>
      </trkpt>
      <trkpt lat="45.88579" lon="3.02349">
        <ele>743</ele>
        <time>2013-12-28T06:54:05Z</time>
      </trkpt>
      <trkpt lat="45.88609" lon="3.02285">
        <ele>743</ele>
        <time>2013-12-28T06:54:05Z</time>
      </trkpt>
      <trkpt lat="45.8862" lon="3.02252">
        <ele>742</ele>
        <time>2013-12-28T06:54:05Z</time>
      </trkpt>
      <trkpt lat="45.8864" lon="3.02216">
        <ele>740</ele>
        <time>2013-12-28T06:54:05Z</time>
      </trkpt>
      <trkpt lat="45.88671" lon="3.02206">
        <ele>739</ele>
        <time>2013-12-28T06:54:05Z</time>
      </trkpt>
      <trkpt lat="45.88783" lon="3.02173">
        <ele>736</ele>
        <time>2013-12-28T06:54:05Z</time>
      </trkpt>
      <trkpt lat="45.88836" lon="3.02153">
        <ele>734</ele>
        <time>2013-12-28T06:54:05Z</time>
      </trkpt>
      <trkpt lat="45.8887" lon="3.02198">
        <ele>730</ele>
        <time>2013-12-28T06:54:05Z</time>
      </trkpt>
      <trkpt lat="45.88893" lon="3.02245">
        <ele>725</ele>
        <time>2013-12-28T06:54:05Z</time>
      </trkpt>
      <trkpt lat="45.88918" lon="3.02299">
        <ele>717</ele>
        <time>2013-12-28T06:54:05Z</time>
      </trkpt>
      <trkpt lat="45.88936" lon="3.02344">
        <ele>712</ele>
        <time>2013-12-28T06:54:05Z</time>
      </trkpt>
      <trkpt lat="45.88951" lon="3.02372">
        <ele>708</ele>
        <time>2013-12-28T06:54:05Z</time>
      </trkpt>
      <trkpt lat="45.88967" lon="3.02335">
        <ele>706</ele>
        <time>2013-12-28T06:54:05Z</time>
      </trkpt>
      <trkpt lat="45.8899" lon="3.02337">
        <ele>703</ele>
        <time>2013-12-28T06:54:05Z</time>
      </trkpt>
      <trkpt lat="45.89023" lon="3.02406">
        <ele>697</ele>
        <time>2013-12-28T06:54:05Z</time>
      </trkpt>
      <trkpt lat="45.89059" lon="3.0246">
        <ele>692</ele>
        <time>2013-12-28T06:54:05Z</time>
      </trkpt>
      <trkpt lat="45.89096" lon="3.02522">
        <ele>685</ele>
        <time>2013-12-28T06:54:05Z</time>
      </trkpt>
      <trkpt lat="45.89113" lon="3.02591">
        <ele>684</ele>
        <time>2013-12-28T06:54:05Z</time>
      </trkpt>
      <trkpt lat="45.89126" lon="3.02648">
        <ele>684</ele>
        <time>2013-12-28T06:54:05Z</time>
      </trkpt>
      <trkpt lat="45.89137" lon="3.02674">
        <ele>685</ele>
        <time>2013-12-28T06:54:05Z</time>
      </trkpt>
      <trkpt lat="45.89132" lon="3.02748">
        <ele>679</ele>
        <time>2013-12-28T06:54:05Z</time>
      </trkpt>
      <trkpt lat="45.89131" lon="3.02757">
        <ele>678</ele>
        <time>2013-12-28T06:54:05Z</time>
      </trkpt>
      <trkpt lat="45.89167" lon="3.02795">
        <ele>680</ele>
        <time>2013-12-28T06:54:05Z</time>
      </trkpt>
      <trkpt lat="45.89186" lon="3.02814">
        <ele>680</ele>
        <time>2013-12-28T06:54:05Z</time>
      </trkpt>
      <trkpt lat="45.89189" lon="3.0284">
        <ele>677</ele>
        <time>2013-12-28T06:54:05Z</time>
      </trkpt>
      <trkpt lat="45.89232" lon="3.02894">
        <ele>673</ele>
        <time>2013-12-28T06:54:05Z</time>
      </trkpt>
      <trkpt lat="45.89273" lon="3.02941">
        <ele>669</ele>
        <time>2013-12-28T06:54:05Z</time>
      </trkpt>
      <trkpt lat="45.89302" lon="3.0299">
        <ele>665</ele>
        <time>2013-12-28T06:54:05Z</time>
      </trkpt>
      <trkpt lat="45.89324" lon="3.03024">
        <ele>662</ele>
        <time>2013-12-28T06:54:05Z</time>
      </trkpt>
      <trkpt lat="45.89348" lon="3.03055">
        <ele>661</ele>
        <time>2013-12-28T06:54:05Z</time>
      </trkpt>
      <trkpt lat="45.89354" lon="3.03089">
        <ele>660</ele>
        <time>2013-12-28T06:54:05Z</time>
      </trkpt>
      <trkpt lat="45.89355" lon="3.03139">
        <ele>658</ele>
        <time>2013-12-28T06:54:05Z</time>
      </trkpt>
      <trkpt lat="45.89363" lon="3.03164">
        <ele>658</ele>
        <time>2013-12-28T06:54:05Z</time>
      </trkpt>
      <trkpt lat="45.89385" lon="3.03211">
        <ele>659</ele>
        <time>2013-12-28T06:54:05Z</time>
      </trkpt>
      <trkpt lat="45.89388" lon="3.03265">
        <ele>659</ele>
        <time>2013-12-28T06:54:05Z</time>
      </trkpt>
      <trkpt lat="45.89388" lon="3.03323">
        <ele>659</ele>
        <time>2013-12-28T06:54:05Z</time>
      </trkpt>
      <trkpt lat="45.89386" lon="3.03369">
        <ele>658</ele>
        <time>2013-12-28T06:54:05Z</time>
      </trkpt>
      <trkpt lat="45.89383" lon="3.03393">
        <ele>659</ele>
        <time>2013-12-28T06:54:05Z</time>
      </trkpt>
      <trkpt lat="45.89369" lon="3.03403">
        <ele>660</ele>
        <time>2013-12-28T06:54:05Z</time>
      </trkpt>
      <trkpt lat="45.89361" lon="3.03412">
        <ele>660</ele>
        <time>2013-12-28T06:54:05Z</time>
      </trkpt>
      <trkpt lat="45.89345" lon="3.03422">
        <ele>660</ele>
        <time>2013-12-28T06:54:05Z</time>
      </trkpt>
      <trkpt lat="45.89323" lon="3.03422">
        <ele>661</ele>
        <time>2013-12-28T06:54:05Z</time>
      </trkpt>
      <trkpt lat="45.89304" lon="3.03426">
        <ele>660</ele>
        <time>2013-12-28T06:54:05Z</time>
      </trkpt>
      <trkpt lat="45.89292" lon="3.03428">
        <ele>658</ele>
        <time>2013-12-28T06:54:05Z</time>
      </trkpt>
      <trkpt lat="45.89276" lon="3.03428">
        <ele>656</ele>
        <time>2013-12-28T06:54:05Z</time>
      </trkpt>
      <trkpt lat="45.89277" lon="3.035">
        <ele>653</ele>
        <time>2013-12-28T06:54:05Z</time>
      </trkpt>
      <trkpt lat="45.89302" lon="3.03605">
        <ele>654</ele>
        <time>2013-12-28T06:54:05Z</time>
      </trkpt>
      <trkpt lat="45.89306" lon="3.03658">
        <ele>653</ele>
        <time>2013-12-28T06:54:05Z</time>
      </trkpt>
      <trkpt lat="45.89305" lon="3.03719">
        <ele>649</ele>
        <time>2013-12-28T06:54:05Z</time>
      </trkpt>
      <trkpt lat="45.89305" lon="3.03744">
        <ele>648</ele>
        <time>2013-12-28T06:54:05Z</time>
      </trkpt>
      <trkpt lat="45.89286" lon="3.03745">
        <ele>644</ele>
        <time>2013-12-28T06:54:05Z</time>
      </trkpt>
      <trkpt lat="45.89237" lon="3.03738">
        <ele>640</ele>
        <time>2013-12-28T06:54:05Z</time>
      </trkpt>
      <trkpt lat="45.892" lon="3.03704">
        <ele>630</ele>
        <time>2013-12-28T06:54:05Z</time>
      </trkpt>
      <trkpt lat="45.89185" lon="3.03702">
        <ele>629</ele>
        <time>2013-12-28T06:54:05Z</time>
      </trkpt>
      <trkpt lat="45.8917" lon="3.03711">
        <ele>627</ele>
        <time>2013-12-28T06:54:05Z</time>
      </trkpt>
      <trkpt lat="45.89163" lon="3.0374">
        <ele>628</ele>
        <time>2013-12-28T06:54:05Z</time>
      </trkpt>
      <trkpt lat="45.89182" lon="3.03779">
        <ele>630</ele>
        <time>2013-12-28T06:54:05Z</time>
      </trkpt>
      <trkpt lat="45.89185" lon="3.03837">
        <ele>624</ele>
        <time>2013-12-28T06:54:05Z</time>
      </trkpt>
      <trkpt lat="45.89185" lon="3.03872">
        <ele>620</ele>
        <time>2013-12-28T06:54:05Z</time>
      </trkpt>
      <trkpt lat="45.89184" lon="3.03901">
        <ele>622</ele>
        <time>2013-12-28T06:54:05Z</time>
      </trkpt>
      <trkpt lat="45.89179" lon="3.03924">
        <ele>622</ele>
        <time>2013-12-28T06:54:05Z</time>
      </trkpt>
      <trkpt lat="45.89138" lon="3.03933">
        <ele>615</ele>
        <time>2013-12-28T06:54:05Z</time>
      </trkpt>
      <trkpt lat="45.8907" lon="3.03961">
        <ele>609</ele>
        <time>2013-12-28T06:54:05Z</time>
      </trkpt>
      <trkpt lat="45.89044" lon="3.03982">
        <ele>609</ele>
        <time>2013-12-28T06:54:05Z</time>
      </trkpt>
      <trkpt lat="45.89021" lon="3.04012">
        <ele>607</ele>
        <time>2013-12-28T06:54:05Z</time>
      </trkpt>
      <trkpt lat="45.89009" lon="3.04047">
        <ele>607</ele>
        <time>2013-12-28T06:54:05Z</time>
      </trkpt>
      <trkpt lat="45.89007" lon="3.04073">
        <ele>608</ele>
        <time>2013-12-28T06:54:05Z</time>
      </trkpt>
      <trkpt lat="45.89008" lon="3.04091">
        <ele>605</ele>
        <time>2013-12-28T06:54:05Z</time>
      </trkpt>
      <trkpt lat="45.88986" lon="3.04087">
        <ele>598</ele>
        <time>2013-12-28T06:54:05Z</time>
      </trkpt>
      <trkpt lat="45.88952" lon="3.04069">
        <ele>588</ele>
        <time>2013-12-28T06:54:05Z</time>
      </trkpt>
      <trkpt lat="45.88963" lon="3.04108">
        <ele>586</ele>
        <time>2013-12-28T06:54:05Z</time>
      </trkpt>
      <trkpt lat="45.88982" lon="3.04171">
        <ele>578</ele>
        <time>2013-12-28T06:54:05Z</time>
      </trkpt>
      <trkpt lat="45.88992" lon="3.04213">
        <ele>570</ele>
        <time>2013-12-28T06:54:05Z</time>
      </trkpt>
      <trkpt lat="45.89003" lon="3.04255">
        <ele>562</ele>
        <time>2013-12-28T06:54:05Z</time>
      </trkpt>
      <trkpt lat="45.89023" lon="3.04302">
        <ele>561</ele>
        <time>2013-12-28T06:54:05Z</time>
      </trkpt>
      <trkpt lat="45.8904" lon="3.04352">
        <ele>558</ele>
        <time>2013-12-28T06:54:05Z</time>
      </trkpt>
      <trkpt lat="45.89056" lon="3.04385">
        <ele>556</ele>
        <time>2013-12-28T06:54:05Z</time>
      </trkpt>
      <trkpt lat="45.89085" lon="3.04424">
        <ele>556</ele>
        <time>2013-12-28T06:54:05Z</time>
      </trkpt>
      <trkpt lat="45.89116" lon="3.04434">
        <ele>558</ele>
        <time>2013-12-28T06:54:05Z</time>
      </trkpt>
      <trkpt lat="45.89159" lon="3.04463">
        <ele>553</ele>
        <time>2013-12-28T06:54:05Z</time>
      </trkpt>
      <trkpt lat="45.89196" lon="3.04464">
        <ele>551</ele>
        <time>2013-12-28T06:54:05Z</time>
      </trkpt>
      <trkpt lat="45.89199" lon="3.04483">
        <ele>543</ele>
        <time>2013-12-28T06:54:05Z</time>
      </trkpt>
      <trkpt lat="45.89178" lon="3.04489">
        <ele>543</ele>
        <time>2013-12-28T06:54:05Z</time>
      </trkpt>
      <trkpt lat="45.89139" lon="3.04489">
        <ele>543</ele>
        <time>2013-12-28T06:54:05Z</time>
      </trkpt>
      <trkpt lat="45.89086" lon="3.04472">
        <ele>541</ele>
        <time>2013-12-28T06:54:05Z</time>
      </trkpt>
      <trkpt lat="45.89042" lon="3.04439">
        <ele>537</ele>
        <time>2013-12-28T06:54:05Z</time>
      </trkpt>
      <trkpt lat="45.89012" lon="3.044">
        <ele>536</ele>
        <time>2013-12-28T06:54:05Z</time>
      </trkpt>
      <trkpt lat="45.88981" lon="3.0435">
        <ele>534</ele>
        <time>2013-12-28T06:54:05Z</time>
      </trkpt>
      <trkpt lat="45.88964" lon="3.04321">
        <ele>533</ele>
        <time>2013-12-28T06:54:05Z</time>
      </trkpt>
      <trkpt lat="45.88954" lon="3.04301">
        <ele>533</ele>
        <time>2013-12-28T06:54:05Z</time>
      </trkpt>
      <trkpt lat="45.88942" lon="3.04291">
        <ele>530</ele>
        <time>2013-12-28T06:54:05Z</time>
      </trkpt>
      <trkpt lat="45.88942" lon="3.04307">
        <ele>527</ele>
        <time>2013-12-28T06:54:05Z</time>
      </trkpt>
      <trkpt lat="45.88953" lon="3.04354">
        <ele>522</ele>
        <time>2013-12-28T06:54:05Z</time>
      </trkpt>
      <trkpt lat="45.88961" lon="3.04432">
        <ele>511</ele>
        <time>2013-12-28T06:54:05Z</time>
      </trkpt>
      <trkpt lat="45.88996" lon="3.04495">
        <ele>509</ele>
        <time>2013-12-28T06:54:05Z</time>
      </trkpt>
      <trkpt lat="45.89012" lon="3.04534">
        <ele>504</ele>
        <time>2013-12-28T06:54:05Z</time>
      </trkpt>
      <trkpt lat="45.89037" lon="3.04566">
        <ele>501</ele>
        <time>2013-12-28T06:54:05Z</time>
      </trkpt>
      <trkpt lat="45.89073" lon="3.04601">
        <ele>500</ele>
        <time>2013-12-28T06:54:05Z</time>
      </trkpt>
      <trkpt lat="45.89097" lon="3.04612">
        <ele>500</ele>
        <time>2013-12-28T06:54:05Z</time>
      </trkpt>
      <trkpt lat="45.89132" lon="3.04632">
        <ele>498</ele>
        <time>2013-12-28T06:54:05Z</time>
      </trkpt>
      <trkpt lat="45.89158" lon="3.04634">
        <ele>499</ele>
        <time>2013-12-28T06:54:05Z</time>
      </trkpt>
      <trkpt lat="45.89198" lon="3.04622">
        <ele>500</ele>
        <time>2013-12-28T06:54:05Z</time>
      </trkpt>
      <trkpt lat="45.8922" lon="3.04606">
        <ele>501</ele>
        <time>2013-12-28T06:54:05Z</time>
      </trkpt>
      <trkpt lat="45.89246" lon="3.04593">
        <ele>497</ele>
        <time>2013-12-28T06:54:05Z</time>
      </trkpt>
      <trkpt lat="45.89265" lon="3.04614">
        <ele>489</ele>
        <time>2013-12-28T06:54:05Z</time>
      </trkpt>
      <trkpt lat="45.89279" lon="3.0464">
        <ele>488</ele>
        <time>2013-12-28T06:54:05Z</time>
      </trkpt>
      <trkpt lat="45.89305" lon="3.04671">
        <ele>491</ele>
        <time>2013-12-28T06:54:05Z</time>
      </trkpt>
      <trkpt lat="45.89342" lon="3.0471">
        <ele>493</ele>
        <time>2013-12-28T06:54:05Z</time>
      </trkpt>
      <trkpt lat="45.89368" lon="3.04725">
        <ele>494</ele>
        <time>2013-12-28T06:54:05Z</time>
      </trkpt>
      <trkpt lat="45.8939" lon="3.04734">
        <ele>495</ele>
        <time>2013-12-28T06:54:05Z</time>
      </trkpt>
      <trkpt lat="45.89424" lon="3.04723">
        <ele>501</ele>
        <time>2013-12-28T06:54:05Z</time>
      </trkpt>
      <trkpt lat="45.8945" lon="3.04704">
        <ele>508</ele>
        <time>2013-12-28T06:54:05Z</time>
      </trkpt>
      <trkpt lat="45.89518" lon="3.04714">
        <ele>509</ele>
        <time>2013-12-28T06:54:05Z</time>
      </trkpt>
      <trkpt lat="45.896" lon="3.04722">
        <ele>511</ele>
        <time>2013-12-28T06:54:05Z</time>
      </trkpt>
      <trkpt lat="45.89672" lon="3.04732">
        <ele>508</ele>
        <time>2013-12-28T06:54:05Z</time>
      </trkpt>
      <trkpt lat="45.8971" lon="3.0472">
        <ele>505</ele>
        <time>2013-12-28T06:54:05Z</time>
      </trkpt>
      <trkpt lat="45.89725" lon="3.04701">
        <ele>507</ele>
        <time>2013-12-28T06:54:05Z</time>
      </trkpt>
      <trkpt lat="45.8975" lon="3.04658">
        <ele>516</ele>
        <time>2013-12-28T06:54:05Z</time>
      </trkpt>
      <trkpt lat="45.89757" lon="3.04622">
        <ele>518</ele>
        <time>2013-12-28T06:54:05Z</time>
      </trkpt>
      <trkpt lat="45.89762" lon="3.04582">
        <ele>520</ele>
        <time>2013-12-28T06:54:05Z</time>
      </trkpt>
      <trkpt lat="45.89761" lon="3.04542">
        <ele>521</ele>
        <time>2013-12-28T06:54:05Z</time>
      </trkpt>
      <trkpt lat="45.89762" lon="3.04486">
        <ele>526</ele>
        <time>2013-12-28T06:54:05Z</time>
      </trkpt>
      <trkpt lat="45.89767" lon="3.04418">
        <ele>536</ele>
        <time>2013-12-28T06:54:05Z</time>
      </trkpt>
      <trkpt lat="45.89769" lon="3.04387">
        <ele>543</ele>
        <time>2013-12-28T06:54:05Z</time>
      </trkpt>
      <trkpt lat="45.89788" lon="3.04362">
        <ele>544</ele>
        <time>2013-12-28T06:54:05Z</time>
      </trkpt>
      <trkpt lat="45.89814" lon="3.04346">
        <ele>544</ele>
        <time>2013-12-28T06:54:05Z</time>
      </trkpt>
      <trkpt lat="45.89839" lon="3.04343">
        <ele>542</ele>
        <time>2013-12-28T06:54:05Z</time>
      </trkpt>
      <trkpt lat="45.89856" lon="3.04345">
        <ele>538</ele>
        <time>2013-12-28T06:54:05Z</time>
      </trkpt>
      <trkpt lat="45.89877" lon="3.04345">
        <ele>535</ele>
        <time>2013-12-28T06:54:05Z</time>
      </trkpt>
      <trkpt lat="45.89887" lon="3.04324">
        <ele>542</ele>
        <time>2013-12-28T06:54:05Z</time>
      </trkpt>
      <trkpt lat="45.89898" lon="3.04308">
        <ele>544</ele>
        <time>2013-12-28T06:54:05Z</time>
      </trkpt>
      <trkpt lat="45.89916" lon="3.04294">
        <ele>539</ele>
        <time>2013-12-28T06:54:05Z</time>
      </trkpt>
      <trkpt lat="45.89935" lon="3.04285">
        <ele>533</ele>
        <time>2013-12-28T06:54:05Z</time>
      </trkpt>
      <trkpt lat="45.89961" lon="3.04274">
        <ele>530</ele>
        <time>2013-12-28T06:54:05Z</time>
      </trkpt>
      <trkpt lat="45.89976" lon="3.0424">
        <ele>534</ele>
        <time>2013-12-28T06:54:05Z</time>
      </trkpt>
      <trkpt lat="45.89975" lon="3.0421">
        <ele>542</ele>
        <time>2013-12-28T06:54:05Z</time>
      </trkpt>
      <trkpt lat="45.89972" lon="3.04176">
        <ele>550</ele>
        <time>2013-12-28T06:54:05Z</time>
      </trkpt>
      <trkpt lat="45.89965" lon="3.04156">
        <ele>554</ele>
        <time>2013-12-28T06:54:05Z</time>
      </trkpt>
      <trkpt lat="45.89936" lon="3.04124">
        <ele>557</ele>
        <time>2013-12-28T06:54:05Z</time>
      </trkpt>
      <trkpt lat="45.89918" lon="3.0409">
        <ele>559</ele>
        <time>2013-12-28T06:54:05Z</time>
      </trkpt>
      <trkpt lat="45.89903" lon="3.04062">
        <ele>557</ele>
        <time>2013-12-28T06:54:05Z</time>
      </trkpt>
      <trkpt lat="45.89895" lon="3.04041">
        <ele>557</ele>
        <time>2013-12-28T06:54:05Z</time>
      </trkpt>
      <trkpt lat="45.89893" lon="3.04025">
        <ele>558</ele>
        <time>2013-12-28T06:54:05Z</time>
      </trkpt>
      <trkpt lat="45.89899" lon="3.03965">
        <ele>561</ele>
        <time>2013-12-28T06:54:05Z</time>
      </trkpt>
      <trkpt lat="45.89909" lon="3.0392">
        <ele>567</ele>
        <time>2013-12-28T06:54:05Z</time>
      </trkpt>
      <trkpt lat="45.89906" lon="3.03877">
        <ele>568</ele>
        <time>2013-12-28T06:54:05Z</time>
      </trkpt>
      <trkpt lat="45.89901" lon="3.03837">
        <ele>570</ele>
        <time>2013-12-28T06:54:05Z</time>
      </trkpt>
      <trkpt lat="45.89892" lon="3.03807">
        <ele>571</ele>
        <time>2013-12-28T06:54:05Z</time>
      </trkpt>
      <trkpt lat="45.89889" lon="3.03782">
        <ele>572</ele>
        <time>2013-12-28T06:54:05Z</time>
      </trkpt>
      <trkpt lat="45.89883" lon="3.03736">
        <ele>574</ele>
        <time>2013-12-28T06:54:05Z</time>
      </trkpt>
      <trkpt lat="45.89882" lon="3.03709">
        <ele>575</ele>
        <time>2013-12-28T06:54:05Z</time>
      </trkpt>
      <trkpt lat="45.89894" lon="3.03654">
        <ele>574</ele>
        <time>2013-12-28T06:54:05Z</time>
      </trkpt>
      <trkpt lat="45.89899" lon="3.03629">
        <ele>574</ele>
        <time>2013-12-28T06:54:05Z</time>
      </trkpt>
      <trkpt lat="45.89898" lon="3.03606">
        <ele>576</ele>
        <time>2013-12-28T06:54:05Z</time>
      </trkpt>
      <trkpt lat="45.89894" lon="3.03595">
        <ele>577</ele>
        <time>2013-12-28T06:54:05Z</time>
      </trkpt>
      <trkpt lat="45.89885" lon="3.03579">
        <ele>578</ele>
        <time>2013-12-28T06:54:05Z</time>
      </trkpt>
      <trkpt lat="45.8987" lon="3.03564">
        <ele>578</ele>
        <time>2013-12-28T06:54:05Z</time>
      </trkpt>
      <trkpt lat="45.89844" lon="3.03544">
        <ele>581</ele>
        <time>2013-12-28T06:54:05Z</time>
      </trkpt>
      <trkpt lat="45.8983" lon="3.0351">
        <ele>583</ele>
        <time>2013-12-28T06:54:05Z</time>
      </trkpt>
      <trkpt lat="45.89815" lon="3.0346">
        <ele>582</ele>
        <time>2013-12-28T06:54:05Z</time>
      </trkpt>
      <trkpt lat="45.89809" lon="3.03415">
        <ele>581</ele>
        <time>2013-12-28T06:54:05Z</time>
      </trkpt>
      <trkpt lat="45.89806" lon="3.03383">
        <ele>582</ele>
        <time>2013-12-28T06:54:05Z</time>
      </trkpt>
      <trkpt lat="45.89805" lon="3.03338">
        <ele>583</ele>
        <time>2013-12-28T06:54:05Z</time>
      </trkpt>
      <trkpt lat="45.89809" lon="3.03313">
        <ele>581</ele>
        <time>2013-12-28T06:54:05Z</time>
      </trkpt>
      <trkpt lat="45.89814" lon="3.03286">
        <ele>582</ele>
        <time>2013-12-28T06:54:05Z</time>
      </trkpt>
      <trkpt lat="45.89827" lon="3.03267">
        <ele>583</ele>
        <time>2013-12-28T06:54:05Z</time>
      </trkpt>
      <trkpt lat="45.89845" lon="3.03246">
        <ele>584</ele>
        <time>2013-12-28T06:54:05Z</time>
      </trkpt>
      <trkpt lat="45.89861" lon="3.03221">
        <ele>585</ele>
        <time>2013-12-28T06:54:05Z</time>
      </trkpt>
      <trkpt lat="45.8986" lon="3.03238">
        <ele>586</ele>
        <time>2013-12-28T06:54:05Z</time>
      </trkpt>
      <trkpt lat="45.89842" lon="3.0329">
        <ele>586</ele>
        <time>2013-12-28T06:54:05Z</time>
      </trkpt>
      <trkpt lat="45.89841" lon="3.03324">
        <ele>588</ele>
        <time>2013-12-28T06:54:05Z</time>
      </trkpt>
      <trkpt lat="45.89862" lon="3.03367">
        <ele>596</ele>
        <time>2013-12-28T06:54:05Z</time>
      </trkpt>
      <trkpt lat="45.89892" lon="3.03435">
        <ele>604</ele>
        <time>2013-12-28T06:54:05Z</time>
      </trkpt>
      <trkpt lat="45.89932" lon="3.03468">
        <ele>608</ele>
        <time>2013-12-28T06:54:05Z</time>
      </trkpt>
      <trkpt lat="45.89967" lon="3.03478">
        <ele>614</ele>
        <time>2013-12-28T06:54:05Z</time>
      </trkpt>
      <trkpt lat="45.90005" lon="3.03535">
        <ele>616</ele>
        <time>2013-12-28T06:54:05Z</time>
      </trkpt>
      <trkpt lat="45.90034" lon="3.03581">
        <ele>620</ele>
        <time>2013-12-28T06:54:05Z</time>
      </trkpt>
      <trkpt lat="45.90064" lon="3.03639">
        <ele>625</ele>
        <time>2013-12-28T06:54:05Z</time>
      </trkpt>
      <trkpt lat="45.90081" lon="3.03666">
        <ele>627</ele>
        <time>2013-12-28T06:54:05Z</time>
      </trkpt>
      <trkpt lat="45.90106" lon="3.03704">
        <ele>629</ele>
        <time>2013-12-28T06:54:05Z</time>
      </trkpt>
      <trkpt lat="45.90132" lon="3.03749">
        <ele>627</ele>
        <time>2013-12-28T06:54:05Z</time>
      </trkpt>
      <trkpt lat="45.90151" lon="3.03796">
        <ele>629</ele>
        <time>2013-12-28T06:54:05Z</time>
      </trkpt>
      <trkpt lat="45.90178" lon="3.03835">
        <ele>634</ele>
        <time>2013-12-28T06:54:05Z</time>
      </trkpt>
      <trkpt lat="45.90205" lon="3.03881">
        <ele>638</ele>
        <time>2013-12-28T06:54:05Z</time>
      </trkpt>
      <trkpt lat="45.90234" lon="3.03923">
        <ele>647</ele>
        <time>2013-12-28T06:54:05Z</time>
      </trkpt>
      <trkpt lat="45.90264" lon="3.03959">
        <ele>650</ele>
        <time>2013-12-28T06:54:05Z</time>
      </trkpt>
      <trkpt lat="45.90298" lon="3.03985">
        <ele>650</ele>
        <time>2013-12-28T06:54:05Z</time>
      </trkpt>
      <trkpt lat="45.90331" lon="3.04005">
        <ele>648</ele>
        <time>2013-12-28T06:54:05Z</time>
      </trkpt>
      <trkpt lat="45.90374" lon="3.04026">
        <ele>642</ele>
        <time>2013-12-28T06:54:05Z</time>
      </trkpt>
      <trkpt lat="45.90391" lon="3.04018">
        <ele>642</ele>
        <time>2013-12-28T06:54:05Z</time>
      </trkpt>
      <trkpt lat="45.90413" lon="3.03972">
        <ele>641</ele>
        <time>2013-12-28T06:54:05Z</time>
      </trkpt>
      <trkpt lat="45.90437" lon="3.03911">
        <ele>644</ele>
        <time>2013-12-28T06:54:05Z</time>
      </trkpt>
      <trkpt lat="45.90459" lon="3.03873">
        <ele>648</ele>
        <time>2013-12-28T06:54:05Z</time>
      </trkpt>
      <trkpt lat="45.90489" lon="3.03844">
        <ele>650</ele>
        <time>2013-12-28T06:54:05Z</time>
      </trkpt>
      <trkpt lat="45.90521" lon="3.03827">
        <ele>652</ele>
        <time>2013-12-28T06:54:05Z</time>
      </trkpt>
      <trkpt lat="45.90541" lon="3.03787">
        <ele>654</ele>
        <time>2013-12-28T06:54:05Z</time>
      </trkpt>
      <trkpt lat="45.9054" lon="3.03745">
        <ele>656</ele>
        <time>2013-12-28T06:54:05Z</time>
      </trkpt>
      <trkpt lat="45.90535" lon="3.03687">
        <ele>659</ele>
        <time>2013-12-28T06:54:05Z</time>
      </trkpt>
      <trkpt lat="45.90526" lon="3.03648">
        <ele>662</ele>
        <time>2013-12-28T06:54:05Z</time>
      </trkpt>
      <trkpt lat="45.90514" lon="3.0363">
        <ele>665</ele>
        <time>2013-12-28T06:54:05Z</time>
      </trkpt>
      <trkpt lat="45.90475" lon="3.03605">
        <ele>672</ele>
        <time>2013-12-28T06:54:05Z</time>
      </trkpt>
      <trkpt lat="45.90449" lon="3.03589">
        <ele>676</ele>
        <time>2013-12-28T06:54:05Z</time>
      </trkpt>
      <trkpt lat="45.90429" lon="3.03558">
        <ele>679</ele>
        <time>2013-12-28T06:54:05Z</time>
      </trkpt>
      <trkpt lat="45.90398" lon="3.03506">
        <ele>683</ele>
        <time>2013-12-28T06:54:05Z</time>
      </trkpt>
      <trkpt lat="45.90373" lon="3.03469">
        <ele>688</ele>
        <time>2013-12-28T06:54:05Z</time>
      </trkpt>
      <trkpt lat="45.90354" lon="3.03436">
        <ele>693</ele>
        <time>2013-12-28T06:54:05Z</time>
      </trkpt>
      <trkpt lat="45.90341" lon="3.03402">
        <ele>697</ele>
        <time>2013-12-28T06:54:05Z</time>
      </trkpt>
      <trkpt lat="45.90325" lon="3.03351">
        <ele>703</ele>
        <time>2013-12-28T06:54:05Z</time>
      </trkpt>
      <trkpt lat="45.90323" lon="3.03341">
        <ele>704</ele>
        <time>2013-12-28T06:54:05Z</time>
      </trkpt>
      <trkpt lat="45.90332" lon="3.03264">
        <ele>710</ele>
        <time>2013-12-28T06:54:05Z</time>
      </trkpt>
      <trkpt lat="45.90328" lon="3.03215">
        <ele>714</ele>
        <time>2013-12-28T06:54:05Z</time>
      </trkpt>
      <trkpt lat="45.90319" lon="3.03154">
        <ele>717</ele>
        <time>2013-12-28T06:54:05Z</time>
      </trkpt>
      <trkpt lat="45.90318" lon="3.03102">
        <ele>720</ele>
        <time>2013-12-28T06:54:05Z</time>
      </trkpt>
      <trkpt lat="45.90321" lon="3.03033">
        <ele>722</ele>
        <time>2013-12-28T06:54:05Z</time>
      </trkpt>
      <trkpt lat="45.90337" lon="3.02954">
        <ele>725</ele>
        <time>2013-12-28T06:54:05Z</time>
      </trkpt>
      <trkpt lat="45.90359" lon="3.02876">
        <ele>727</ele>
        <time>2013-12-28T06:54:05Z</time>
      </trkpt>
      <trkpt lat="45.90386" lon="3.02797">
        <ele>727</ele>
        <time>2013-12-28T06:54:05Z</time>
      </trkpt>
      <trkpt lat="45.9041" lon="3.02744">
        <ele>728</ele>
        <time>2013-12-28T06:54:05Z</time>
      </trkpt>
      <trkpt lat="45.90449" lon="3.02672">
        <ele>726</ele>
        <time>2013-12-28T06:54:05Z</time>
      </trkpt>
      <trkpt lat="45.90492" lon="3.02612">
        <ele>725</ele>
        <time>2013-12-28T06:54:05Z</time>
      </trkpt>
      <trkpt lat="45.90525" lon="3.02582">
        <ele>726</ele>
        <time>2013-12-28T06:54:05Z</time>
      </trkpt>
      <trkpt lat="45.90572" lon="3.02555">
        <ele>725</ele>
        <time>2013-12-28T06:54:05Z</time>
      </trkpt>
      <trkpt lat="45.90615" lon="3.02529">
        <ele>725</ele>
        <time>2013-12-28T06:54:05Z</time>
      </trkpt>
      <trkpt lat="45.90641" lon="3.02507">
        <ele>727</ele>
        <time>2013-12-28T06:54:05Z</time>
      </trkpt>
      <trkpt lat="45.9066" lon="3.02536">
        <ele>730</ele>
        <time>2013-12-28T06:54:05Z</time>
      </trkpt>
      <trkpt lat="45.90666" lon="3.02567">
        <ele>731</ele>
        <time>2013-12-28T06:54:05Z</time>
      </trkpt>
      <trkpt lat="45.90683" lon="3.0259">
        <ele>732</ele>
        <time>2013-12-28T06:54:05Z</time>
      </trkpt>
      <trkpt lat="45.90692" lon="3.02614">
        <ele>732</ele>
        <time>2013-12-28T06:54:05Z</time>
      </trkpt>
      <trkpt lat="45.907" lon="3.02674">
        <ele>732</ele>
        <time>2013-12-28T06:54:05Z</time>
      </trkpt>
      <trkpt lat="45.90716" lon="3.02734">
        <ele>732</ele>
        <time>2013-12-28T06:54:05Z</time>
      </trkpt>
      <trkpt lat="45.90739" lon="3.02831">
        <ele>731</ele>
        <time>2013-12-28T06:54:05Z</time>
      </trkpt>
      <trkpt lat="45.90753" lon="3.029">
        <ele>730</ele>
        <time>2013-12-28T06:54:05Z</time>
      </trkpt>
      <trkpt lat="45.90763" lon="3.02961">
        <ele>729</ele>
        <time>2013-12-28T06:54:05Z</time>
      </trkpt>
      <trkpt lat="45.90789" lon="3.03025">
        <ele>725</ele>
        <time>2013-12-28T06:54:05Z</time>
      </trkpt>
      <trkpt lat="45.90784" lon="3.03087">
        <ele>720</ele>
        <time>2013-12-28T06:54:05Z</time>
      </trkpt>
      <trkpt lat="45.9077" lon="3.03153">
        <ele>712</ele>
        <time>2013-12-28T06:54:05Z</time>
      </trkpt>
      <trkpt lat="45.90774" lon="3.03198">
        <ele>708</ele>
        <time>2013-12-28T06:54:05Z</time>
      </trkpt>
      <trkpt lat="45.90812" lon="3.03296">
        <ele>704</ele>
        <time>2013-12-28T06:54:05Z</time>
      </trkpt>
      <trkpt lat="45.9081" lon="3.03357">
        <ele>697</ele>
        <time>2013-12-28T06:54:05Z</time>
      </trkpt>
      <trkpt lat="45.90814" lon="3.03431">
        <ele>691</ele>
        <time>2013-12-28T06:54:05Z</time>
      </trkpt>
      <trkpt lat="45.90831" lon="3.0347">
        <ele>691</ele>
        <time>2013-12-28T06:54:05Z</time>
      </trkpt>
      <trkpt lat="45.90859" lon="3.03562">
        <ele>681</ele>
        <time>2013-12-28T06:54:05Z</time>
      </trkpt>
      <trkpt lat="45.90882" lon="3.03611">
        <ele>675</ele>
        <time>2013-12-28T06:54:05Z</time>
      </trkpt>
      <trkpt lat="45.90917" lon="3.03671">
        <ele>668</ele>
        <time>2013-12-28T06:54:05Z</time>
      </trkpt>
      <trkpt lat="45.90966" lon="3.03705">
        <ele>661</ele>
        <time>2013-12-28T06:54:05Z</time>
      </trkpt>
      <trkpt lat="45.91034" lon="3.03746">
        <ele>654</ele>
        <time>2013-12-28T06:54:05Z</time>
      </trkpt>
      <trkpt lat="45.91072" lon="3.03763">
        <ele>651</ele>
        <time>2013-12-28T06:54:05Z</time>
      </trkpt>
      <trkpt lat="45.91086" lon="3.038">
        <ele>647</ele>
        <time>2013-12-28T06:54:05Z</time>
      </trkpt>
      <trkpt lat="45.91097" lon="3.03858">
        <ele>642</ele>
        <time>2013-12-28T06:54:05Z</time>
      </trkpt>
      <trkpt lat="45.91094" lon="3.03923">
        <ele>635</ele>
        <time>2013-12-28T06:54:05Z</time>
      </trkpt>
      <trkpt lat="45.91086" lon="3.0394">
        <ele>631</ele>
        <time>2013-12-28T06:54:05Z</time>
      </trkpt>
      <trkpt lat="45.9109" lon="3.04023">
        <ele>620</ele>
        <time>2013-12-28T06:54:05Z</time>
      </trkpt>
      <trkpt lat="45.91115" lon="3.04095">
        <ele>615</ele>
        <time>2013-12-28T06:54:05Z</time>
      </trkpt>
      <trkpt lat="45.91126" lon="3.04166">
        <ele>605</ele>
        <time>2013-12-28T06:54:05Z</time>
      </trkpt>
      <trkpt lat="45.91125" lon="3.04229">
        <ele>594</ele>
        <time>2013-12-28T06:54:05Z</time>
      </trkpt>
      <trkpt lat="45.91121" lon="3.04277">
        <ele>586</ele>
        <time>2013-12-28T06:54:05Z</time>
      </trkpt>
      <trkpt lat="45.91119" lon="3.04327">
        <ele>580</ele>
        <time>2013-12-28T06:54:05Z</time>
      </trkpt>
      <trkpt lat="45.91115" lon="3.0435">
        <ele>578</ele>
        <time>2013-12-28T06:54:05Z</time>
      </trkpt>
      <trkpt lat="45.911" lon="3.04355">
        <ele>576</ele>
        <time>2013-12-28T06:54:05Z</time>
      </trkpt>
      <trkpt lat="45.91076" lon="3.04345">
        <ele>573</ele>
        <time>2013-12-28T06:54:05Z</time>
      </trkpt>
      <trkpt lat="45.91053" lon="3.04338">
        <ele>567</ele>
        <time>2013-12-28T06:54:05Z</time>
      </trkpt>
      <trkpt lat="45.91047" lon="3.04351">
        <ele>564</ele>
        <time>2013-12-28T06:54:05Z</time>
      </trkpt>
      <trkpt lat="45.91059" lon="3.04406">
        <ele>558</ele>
        <time>2013-12-28T06:54:05Z</time>
      </trkpt>
      <trkpt lat="45.91078" lon="3.04412">
        <ele>560</ele>
        <time>2013-12-28T06:54:05Z</time>
      </trkpt>
      <trkpt lat="45.91111" lon="3.04455">
        <ele>551</ele>
        <time>2013-12-28T06:54:05Z</time>
      </trkpt>
      <trkpt lat="45.91138" lon="3.04506">
        <ele>540</ele>
        <time>2013-12-28T06:54:05Z</time>
      </trkpt>
      <trkpt lat="45.91119" lon="3.04548">
        <ele>533</ele>
        <time>2013-12-28T06:54:05Z</time>
      </trkpt>
      <trkpt lat="45.91097" lon="3.0459">
        <ele>524</ele>
        <time>2013-12-28T06:54:05Z</time>
      </trkpt>
      <trkpt lat="45.91086" lon="3.04615">
        <ele>519</ele>
        <time>2013-12-28T06:54:05Z</time>
      </trkpt>
      <trkpt lat="45.91109" lon="3.04653">
        <ele>517</ele>
        <time>2013-12-28T06:54:05Z</time>
      </trkpt>
      <trkpt lat="45.91149" lon="3.04705">
        <ele>514</ele>
        <time>2013-12-28T06:54:05Z</time>
      </trkpt>
      <trkpt lat="45.91186" lon="3.0477">
        <ele>509</ele>
        <time>2013-12-28T06:54:05Z</time>
      </trkpt>
      <trkpt lat="45.9121" lon="3.0483">
        <ele>503</ele>
        <time>2013-12-28T06:54:05Z</time>
      </trkpt>
      <trkpt lat="45.91239" lon="3.04845">
        <ele>502</ele>
        <time>2013-12-28T06:54:05Z</time>
      </trkpt>
      <trkpt lat="45.91288" lon="3.04853">
        <ele>502</ele>
        <time>2013-12-28T06:54:05Z</time>
      </trkpt>
      <trkpt lat="45.91311" lon="3.04873">
        <ele>500</ele>
        <time>2013-12-28T06:54:05Z</time>
      </trkpt>
      <trkpt lat="45.91326" lon="3.04896">
        <ele>498</ele>
        <time>2013-12-28T06:54:05Z</time>
      </trkpt>
      <trkpt lat="45.91344" lon="3.04944">
        <ele>494</ele>
        <time>2013-12-28T06:54:05Z</time>
      </trkpt>
      <trkpt lat="45.91357" lon="3.04991">
        <ele>492</ele>
        <time>2013-12-28T06:54:05Z</time>
      </trkpt>
      <trkpt lat="45.91373" lon="3.0503">
        <ele>490</ele>
        <time>2013-12-28T06:54:05Z</time>
      </trkpt>
      <trkpt lat="45.91388" lon="3.0507">
        <ele>488</ele>
        <time>2013-12-28T06:54:05Z</time>
      </trkpt>
      <trkpt lat="45.91403" lon="3.05088">
        <ele>487</ele>
        <time>2013-12-28T06:54:05Z</time>
      </trkpt>
      <trkpt lat="45.91413" lon="3.05101">
        <ele>486</ele>
        <time>2013-12-28T06:54:05Z</time>
      </trkpt>
      <trkpt lat="45.91428" lon="3.05095">
        <ele>485</ele>
        <time>2013-12-28T06:54:05Z</time>
      </trkpt>
      <trkpt lat="45.91432" lon="3.05081">
        <ele>485</ele>
        <time>2013-12-28T06:54:05Z</time>
      </trkpt>
      <trkpt lat="45.91432" lon="3.05034">
        <ele>484</ele>
        <time>2013-12-28T06:54:05Z</time>
      </trkpt>
      <trkpt lat="45.91436" lon="3.04997">
        <ele>483</ele>
        <time>2013-12-28T06:54:05Z</time>
      </trkpt>
      <trkpt lat="45.91468" lon="3.04967">
        <ele>479</ele>
        <time>2013-12-28T06:54:05Z</time>
      </trkpt>
      <trkpt lat="45.91512" lon="3.04927">
        <ele>472</ele>
        <time>2013-12-28T06:54:05Z</time>
      </trkpt>
      <trkpt lat="45.91525" lon="3.04893">
        <ele>470</ele>
        <time>2013-12-28T06:54:05Z</time>
      </trkpt>
      <trkpt lat="45.91532" lon="3.04853">
        <ele>468</ele>
        <time>2013-12-28T06:54:05Z</time>
      </trkpt>
      <trkpt lat="45.91541" lon="3.04815">
        <ele>464</ele>
        <time>2013-12-28T06:54:05Z</time>
      </trkpt>
      <trkpt lat="45.91533" lon="3.04781">
        <ele>464</ele>
        <time>2013-12-28T06:54:05Z</time>
      </trkpt>
      <trkpt lat="45.91523" lon="3.04742">
        <ele>464</ele>
        <time>2013-12-28T06:54:05Z</time>
      </trkpt>
      <trkpt lat="45.91521" lon="3.04716">
        <ele>465</ele>
        <time>2013-12-28T06:54:05Z</time>
      </trkpt>
      <trkpt lat="45.91522" lon="3.04692">
        <ele>466</ele>
        <time>2013-12-28T06:54:05Z</time>
      </trkpt>
      <trkpt lat="45.91534" lon="3.04652">
        <ele>469</ele>
        <time>2013-12-28T06:54:05Z</time>
      </trkpt>
      <trkpt lat="45.91552" lon="3.04612">
        <ele>469</ele>
        <time>2013-12-28T06:54:05Z</time>
      </trkpt>
      <trkpt lat="45.91562" lon="3.0457">
        <ele>470</ele>
        <time>2013-12-28T06:54:05Z</time>
      </trkpt>
      <trkpt lat="45.91559" lon="3.04515">
        <ele>472</ele>
        <time>2013-12-28T06:54:05Z</time>
      </trkpt>
      <trkpt lat="45.91546" lon="3.04446">
        <ele>473</ele>
        <time>2013-12-28T06:54:05Z</time>
      </trkpt>
      <trkpt lat="45.91555" lon="3.04365">
        <ele>473</ele>
        <time>2013-12-28T06:54:05Z</time>
      </trkpt>
      <trkpt lat="45.91554" lon="3.04286">
        <ele>475</ele>
        <time>2013-12-28T06:54:05Z</time>
      </trkpt>
      <trkpt lat="45.91555" lon="3.04194">
        <ele>477</ele>
        <time>2013-12-28T06:54:05Z</time>
      </trkpt>
      <trkpt lat="45.91553" lon="3.04128">
        <ele>477</ele>
        <time>2013-12-28T06:54:05Z</time>
      </trkpt>
      <trkpt lat="45.9155" lon="3.04065">
        <ele>477</ele>
        <time>2013-12-28T06:54:05Z</time>
      </trkpt>
      <trkpt lat="45.9155" lon="3.04033">
        <ele>477</ele>
        <time>2013-12-28T06:54:05Z</time>
      </trkpt>
      <trkpt lat="45.91558" lon="3.04009">
        <ele>474</ele>
        <time>2013-12-28T06:54:05Z</time>
      </trkpt>
      <trkpt lat="45.91564" lon="3.03951">
        <ele>475</ele>
        <time>2013-12-28T06:54:05Z</time>
      </trkpt>
      <trkpt lat="45.91564" lon="3.03913">
        <ele>476</ele>
        <time>2013-12-28T06:54:05Z</time>
      </trkpt>
      <trkpt lat="45.91564" lon="3.03882">
        <ele>478</ele>
        <time>2013-12-28T06:54:05Z</time>
      </trkpt>
      <trkpt lat="45.91564" lon="3.03843">
        <ele>481</ele>
        <time>2013-12-28T06:54:05Z</time>
      </trkpt>
      <trkpt lat="45.91564" lon="3.03809">
        <ele>483</ele>
        <time>2013-12-28T06:54:05Z</time>
      </trkpt>
      <trkpt lat="45.91574" lon="3.03789">
        <ele>486</ele>
        <time>2013-12-28T06:54:05Z</time>
      </trkpt>
      <trkpt lat="45.91596" lon="3.03774">
        <ele>489</ele>
        <time>2013-12-28T06:54:05Z</time>
      </trkpt>
      <trkpt lat="45.91607" lon="3.03773">
        <ele>491</ele>
        <time>2013-12-28T06:54:05Z</time>
      </trkpt>
      <trkpt lat="45.91616" lon="3.0378">
        <ele>496</ele>
        <time>2013-12-28T06:54:05Z</time>
      </trkpt>
      <trkpt lat="45.91619" lon="3.03796">
        <ele>499</ele>
        <time>2013-12-28T06:54:05Z</time>
      </trkpt>
      <trkpt lat="45.91618" lon="3.03841">
        <ele>501</ele>
        <time>2013-12-28T06:54:05Z</time>
      </trkpt>
      <trkpt lat="45.91622" lon="3.03883">
        <ele>499</ele>
        <time>2013-12-28T06:54:05Z</time>
      </trkpt>
      <trkpt lat="45.91628" lon="3.03904">
        <ele>500</ele>
        <time>2013-12-28T06:54:05Z</time>
      </trkpt>
      <trkpt lat="45.91632" lon="3.03925">
        <ele>499</ele>
        <time>2013-12-28T06:54:05Z</time>
      </trkpt>
      <trkpt lat="45.9166" lon="3.03954">
        <ele>509</ele>
        <time>2013-12-28T06:54:05Z</time>
      </trkpt>
      <trkpt lat="45.91656" lon="3.03991">
        <ele>503</ele>
        <time>2013-12-28T06:54:05Z</time>
      </trkpt>
      <trkpt lat="45.91663" lon="3.04054">
        <ele>504</ele>
        <time>2013-12-28T06:54:05Z</time>
      </trkpt>
      <trkpt lat="45.91678" lon="3.04114">
        <ele>510</ele>
        <time>2013-12-28T06:54:05Z</time>
      </trkpt>
      <trkpt lat="45.91691" lon="3.04177">
        <ele>514</ele>
        <time>2013-12-28T06:54:05Z</time>
      </trkpt>
      <trkpt lat="45.91712" lon="3.04251">
        <ele>520</ele>
        <time>2013-12-28T06:54:05Z</time>
      </trkpt>
      <trkpt lat="45.91729" lon="3.04313">
        <ele>518</ele>
        <time>2013-12-28T06:54:05Z</time>
      </trkpt>
      <trkpt lat="45.9174" lon="3.04348">
        <ele>515</ele>
        <time>2013-12-28T06:54:05Z</time>
      </trkpt>
      <trkpt lat="45.91777" lon="3.04373">
        <ele>519</ele>
        <time>2013-12-28T06:54:05Z</time>
      </trkpt>
      <trkpt lat="45.91806" lon="3.04397">
        <ele>528</ele>
        <time>2013-12-28T06:54:05Z</time>
      </trkpt>
      <trkpt lat="45.91804" lon="3.0443">
        <ele>524</ele>
        <time>2013-12-28T06:54:05Z</time>
      </trkpt>
      <trkpt lat="45.918" lon="3.04472">
        <ele>525</ele>
        <time>2013-12-28T06:54:05Z</time>
      </trkpt>
      <trkpt lat="45.91794" lon="3.04491">
        <ele>523</ele>
        <time>2013-12-28T06:54:05Z</time>
      </trkpt>
      <trkpt lat="45.9178" lon="3.04537">
        <ele>514</ele>
        <time>2013-12-28T06:54:05Z</time>
      </trkpt>
      <trkpt lat="45.91775" lon="3.04553">
        <ele>510</ele>
        <time>2013-12-28T06:54:05Z</time>
      </trkpt>
      <trkpt lat="45.91775" lon="3.04587">
        <ele>504</ele>
        <time>2013-12-28T06:54:05Z</time>
      </trkpt>
      <trkpt lat="45.91782" lon="3.04615">
        <ele>501</ele>
        <time>2013-12-28T06:54:05Z</time>
      </trkpt>
      <trkpt lat="45.91801" lon="3.04629">
        <ele>507</ele>
        <time>2013-12-28T06:54:05Z</time>
      </trkpt>
      <trkpt lat="45.91825" lon="3.0466">
        <ele>511</ele>
        <time>2013-12-28T06:54:05Z</time>
      </trkpt>
      <trkpt lat="45.91825" lon="3.0471">
        <ele>509</ele>
        <time>2013-12-28T06:54:05Z</time>
      </trkpt>
      <trkpt lat="45.91817" lon="3.04759">
        <ele>510</ele>
        <time>2013-12-28T06:54:05Z</time>
      </trkpt>
      <trkpt lat="45.91799" lon="3.04815">
        <ele>509</ele>
        <time>2013-12-28T06:54:05Z</time>
      </trkpt>
      <trkpt lat="45.91787" lon="3.04848">
        <ele>501</ele>
        <time>2013-12-28T06:54:05Z</time>
      </trkpt>
      <trkpt lat="45.91753" lon="3.04883">
        <ele>489</ele>
        <time>2013-12-28T06:54:05Z</time>
      </trkpt>
      <trkpt lat="45.91728" lon="3.04915">
        <ele>477</ele>
        <time>2013-12-28T06:54:05Z</time>
      </trkpt>
      <trkpt lat="45.9171" lon="3.04946">
        <ele>468</ele>
        <time>2013-12-28T06:54:05Z</time>
      </trkpt>
      <trkpt lat="45.91697" lon="3.04995">
        <ele>454</ele>
        <time>2013-12-28T06:54:05Z</time>
      </trkpt>
      <trkpt lat="45.91695" lon="3.05028">
        <ele>452</ele>
        <time>2013-12-28T06:54:05Z</time>
      </trkpt>
      <trkpt lat="45.91689" lon="3.05047">
        <ele>450</ele>
        <time>2013-12-28T06:54:05Z</time>
      </trkpt>
      <trkpt lat="45.91668" lon="3.05055">
        <ele>446</ele>
        <time>2013-12-28T06:54:05Z</time>
      </trkpt>
      <trkpt lat="45.91658" lon="3.05056">
        <ele>444</ele>
        <time>2013-12-28T06:54:05Z</time>
      </trkpt>
      <trkpt lat="45.91651" lon="3.05061">
        <ele>442</ele>
        <time>2013-12-28T06:54:05Z</time>
      </trkpt>
      <trkpt lat="45.91658" lon="3.05092">
        <ele>444</ele>
        <time>2013-12-28T06:54:05Z</time>
      </trkpt>
      <trkpt lat="45.91656" lon="3.05105">
        <ele>444</ele>
        <time>2013-12-28T06:54:05Z</time>
      </trkpt>
      <trkpt lat="45.91656" lon="3.05127">
        <ele>445</ele>
        <time>2013-12-28T06:54:05Z</time>
      </trkpt>
      <trkpt lat="45.91655" lon="3.05151">
        <ele>446</ele>
        <time>2013-12-28T06:54:05Z</time>
      </trkpt>
      <trkpt lat="45.91643" lon="3.05191">
        <ele>445</ele>
        <time>2013-12-28T06:54:05Z</time>
      </trkpt>
      <trkpt lat="45.91631" lon="3.05215">
        <ele>445</ele>
        <time>2013-12-28T06:54:05Z</time>
      </trkpt>
      <trkpt lat="45.91624" lon="3.05241">
        <ele>445</ele>
        <time>2013-12-28T06:54:05Z</time>
      </trkpt>
      <trkpt lat="45.91622" lon="3.05273">
        <ele>445</ele>
        <time>2013-12-28T06:54:05Z</time>
      </trkpt>
      <trkpt lat="45.91619" lon="3.05325">
        <ele>444</ele>
        <time>2013-12-28T06:54:05Z</time>
      </trkpt>
      <trkpt lat="45.91619" lon="3.05357">
        <ele>443</ele>
        <time>2013-12-28T06:54:05Z</time>
      </trkpt>
      <trkpt lat="45.91618" lon="3.05394">
        <ele>442</ele>
        <time>2013-12-28T06:54:05Z</time>
      </trkpt>
      <trkpt lat="45.91618" lon="3.05431">
        <ele>439</ele>
        <time>2013-12-28T06:54:05Z</time>
      </trkpt>
      <trkpt lat="45.91618" lon="3.05457">
        <ele>437</ele>
        <time>2013-12-28T06:54:05Z</time>
      </trkpt>
      <trkpt lat="45.91631" lon="3.0548">
        <ele>439</ele>
        <time>2013-12-28T06:54:05Z</time>
      </trkpt>
    </trkseg>
  </trk>
</gpx>